PORTS® Data Listing: 8632837 Rappahannock Light, VA

CO-OPS RAW PORTS DATA

************************      PRELIMINARY DATA      ************************** 

     THIS RAW DATA HAS NOT BEEN SUBJECT TO THE NATIONAL OCEAN SERVICE'S        
     QUALITY CONTROL OR QUALITY ASSURANCE PROCEDURES AND DOES NOT MEET         
     THE CRITERIA AND STANDARDS OF OFFICIAL NATIONAL OCEAN SERVICE             
     DATA.  IT IS RELEASED FOR LIMITED PUBLIC USE AS PRELIMINARY DATA TO       
     BE USED ONLY WITH APPROPRIATE CAUTION.                                    

************************      PRELIMINARY DATA      ************************** 


       CD   -   Calendar date
       T    -   Time
       TZ   -   Timezone
       PW   -   Predicted water level (feet above MLLW)
       OW   -   Observed water level (feet above MLLW)
       WS   -   Wind speed (knots)
       WD   -   Wind direction (degrees true)
       WG   -   Wind gust (knots)
       AT   -   Air temperature (degrees farenheit)
       WT   -   Water temperature (degrees farenheit)
       AP   -   Air pressure (millibars)
       SA   -   Salinty (PSU - Practical Salinity Units)
       SG   -   Specific gravity
       RH   -   Relative humidity
       AG   -   Air gap (feet)
       VI   -   Visibility (nautical miles)

       ** NOTE **
       A variable that has its data fields filled with "9"s, indicates that
       data was not collected for that sample period.
       **********


STATION NAME: Rappahannock Light (8632837)
****************************************************************************************************
    CD       T    TZ    PW     OW    WS   WD   WG    AT    WT    AP    SA    SG     RH    AG   VI
****************************************************************************************************
2019/09/16 23:36 EDT  -99.99 -99.99    8  151    8 -99.9 -99.9 1016.0 -9.9 -9.999 -99.9 -99.99 -9.99
2019/09/16 23:42 EDT  -99.99 -99.99    8  140    8 -99.9 -99.9 1015.9 -9.9 -9.999 -99.9 -99.99 -9.99
2019/09/16 23:48 EDT  -99.99 -99.99    7  144    7 -99.9 -99.9 1015.9 -9.9 -9.999 -99.9 -99.99 -9.99
2019/09/16 23:54 EDT  -99.99 -99.99    6  144    6 -99.9 -99.9 1016.0 -9.9 -9.999 -99.9 -99.99 -9.99
2019/09/17 00:00 EDT  -99.99 -99.99    5  139    7 -99.9 -99.9 1016.0 -9.9 -9.999 -99.9 -99.99 -9.99
2019/09/17 00:06 EDT  -99.99 -99.99    5  158    6 -99.9 -99.9 1016.1 -9.9 -9.999 -99.9 -99.99 -9.99
2019/09/17 00:12 EDT  -99.99 -99.99    6  148    6 -99.9 -99.9 1016.1 -9.9 -9.999 -99.9 -99.99 -9.99
2019/09/17 00:18 EDT  -99.99 -99.99    5  138    6 -99.9 -99.9 1016.1 -9.9 -9.999 -99.9 -99.99 -9.99
2019/09/17 00:24 EDT  -99.99 -99.99    5  137    6 -99.9 -99.9 1016.0 -9.9 -9.999 -99.9 -99.99 -9.99
2019/09/17 00:30 EDT  -99.99 -99.99    4  120    6 -99.9 -99.9 1016.0 -9.9 -9.999 -99.9 -99.99 -9.99
2019/09/17 00:36 EDT  -99.99 -99.99    4  125    5 -99.9 -99.9 1016.1 -9.9 -9.999 -99.9 -99.99 -9.99
2019/09/17 00:42 EDT  -99.99 -99.99    3   88    3 -99.9 -99.9 1016.1 -9.9 -9.999 -99.9 -99.99 -9.99
2019/09/17 00:48 EDT  -99.99 -99.99    3   98    3 -99.9 -99.9 1016.1 -9.9 -9.999 -99.9 -99.99 -9.99
2019/09/17 00:54 EDT  -99.99 -99.99    3  110    4 -99.9 -99.9 1016.1 -9.9 -9.999 -99.9 -99.99 -9.99
2019/09/17 01:00 EDT  -99.99 -99.99    2  110    4 -99.9 -99.9 1016.2 -9.9 -9.999 -99.9 -99.99 -9.99
2019/09/17 01:06 EDT  -99.99 -99.99    3  111    3 -99.9 -99.9 1016.2 -9.9 -9.999 -99.9 -99.99 -9.99
2019/09/17 01:12 EDT  -99.99 -99.99    3  114    4 -99.9 -99.9 1016.2 -9.9 -9.999 -99.9 -99.99 -9.99
2019/09/17 01:18 EDT  -99.99 -99.99    2  126    3 -99.9 -99.9 1016.2 -9.9 -9.999 -99.9 -99.99 -9.99
2019/09/17 01:24 EDT  -99.99 -99.99    1  117    2 -99.9 -99.9 1016.3 -9.9 -9.999 -99.9 -99.99 -9.99
2019/09/17 01:30 EDT  -99.99 -99.99    1  121    2 -99.9 -99.9 1016.3 -9.9 -9.999 -99.9 -99.99 -9.99
2019/09/17 01:36 EDT  -99.99 -99.99    0  110    1 -99.9 -99.9 1016.3 -9.9 -9.999 -99.9 -99.99 -9.99
2019/09/17 01:42 EDT  -99.99 -99.99    2   66    3 -99.9 -99.9 1016.3 -9.9 -9.999 -99.9 -99.99 -9.99
2019/09/17 01:48 EDT  -99.99 -99.99    3   63    3 -99.9 -99.9 1016.3 -9.9 -9.999 -99.9 -99.99 -9.99
2019/09/17 01:54 EDT  -99.99 -99.99    3   59    3 -99.9 -99.9 1016.2 -9.9 -9.999 -99.9 -99.99 -9.99
2019/09/17 02:00 EDT  -99.99 -99.99    3   77    4 -99.9 -99.9 1016.2 -9.9 -9.999 -99.9 -99.99 -9.99
2019/09/17 02:06 EDT  -99.99 -99.99    4   84    5 -99.9 -99.9 1016.2 -9.9 -9.999 -99.9 -99.99 -9.99
2019/09/17 02:12 EDT  -99.99 -99.99    5   94    6 -99.9 -99.9 1016.2 -9.9 -9.999 -99.9 -99.99 -9.99
2019/09/17 02:18 EDT  -99.99 -99.99    5   91    5 -99.9 -99.9 1016.3 -9.9 -9.999 -99.9 -99.99 -9.99
2019/09/17 02:24 EDT  -99.99 -99.99    5   72    6 -99.9 -99.9 1016.3 -9.9 -9.999 -99.9 -99.99 -9.99
2019/09/17 02:30 EDT  -99.99 -99.99    5   75    6 -99.9 -99.9 1016.2 -9.9 -9.999 -99.9 -99.99 -9.99
2019/09/17 02:36 EDT  -99.99 -99.99    5   68    6 -99.9 -99.9 1016.2 -9.9 -9.999 -99.9 -99.99 -9.99
2019/09/17 02:42 EDT  -99.99 -99.99    5   68    5 -99.9 -99.9 1016.0 -9.9 -9.999 -99.9 -99.99 -9.99
2019/09/17 02:48 EDT  -99.99 -99.99    5   60    6 -99.9 -99.9 1016.0 -9.9 -9.999 -99.9 -99.99 -9.99
2019/09/17 02:54 EDT  -99.99 -99.99    6   53    7 -99.9 -99.9 1016.0 -9.9 -9.999 -99.9 -99.99 -9.99
2019/09/17 03:00 EDT  -99.99 -99.99    6   51    6 -99.9 -99.9 1016.0 -9.9 -9.999 -99.9 -99.99 -9.99
2019/09/17 03:06 EDT  -99.99 -99.99    7   52    7 -99.9 -99.9 1015.9 -9.9 -9.999 -99.9 -99.99 -9.99
2019/09/17 03:12 EDT  -99.99 -99.99    7   48    7 -99.9 -99.9 1015.9 -9.9 -9.999 -99.9 -99.99 -9.99
2019/09/17 03:18 EDT  -99.99 -99.99    6   52    7 -99.9 -99.9 1015.9 -9.9 -9.999 -99.9 -99.99 -9.99
2019/09/17 03:24 EDT  -99.99 -99.99    7   55    7 -99.9 -99.9 1015.8 -9.9 -9.999 -99.9 -99.99 -9.99
2019/09/17 03:30 EDT  -99.99 -99.99    6   48    7 -99.9 -99.9 1015.7 -9.9 -9.999 -99.9 -99.99 -9.99
2019/09/17 03:36 EDT  -99.99 -99.99    7   39    8 -99.9 -99.9 1015.7 -9.9 -9.999 -99.9 -99.99 -9.99
2019/09/17 03:42 EDT  -99.99 -99.99    7   36    8 -99.9 -99.9 1015.8 -9.9 -9.999 -99.9 -99.99 -9.99
2019/09/17 03:48 EDT  -99.99 -99.99    8   35    9 -99.9 -99.9 1015.8 -9.9 -9.999 -99.9 -99.99 -9.99
2019/09/17 03:54 EDT  -99.99 -99.99    8   38    9 -99.9 -99.9 1015.8 -9.9 -9.999 -99.9 -99.99 -9.99
2019/09/17 04:00 EDT  -99.99 -99.99    8   39    9 -99.9 -99.9 1015.8 -9.9 -9.999 -99.9 -99.99 -9.99
2019/09/17 04:06 EDT  -99.99 -99.99    8   39    9 -99.9 -99.9 1015.8 -9.9 -9.999 -99.9 -99.99 -9.99
2019/09/17 04:12 EDT  -99.99 -99.99    8   41    8 -99.9 -99.9 1015.8 -9.9 -9.999 -99.9 -99.99 -9.99
2019/09/17 04:18 EDT  -99.99 -99.99    8   34    9 -99.9 -99.9 1015.8 -9.9 -9.999 -99.9 -99.99 -9.99
2019/09/17 04:24 EDT  -99.99 -99.99    9   39   10 -99.9 -99.9 1015.8 -9.9 -9.999 -99.9 -99.99 -9.99
2019/09/17 04:30 EDT  -99.99 -99.99   10   39   11 -99.9 -99.9 1015.8 -9.9 -9.999 -99.9 -99.99 -9.99
2019/09/17 04:36 EDT  -99.99 -99.99   10   37   11 -99.9 -99.9 1015.8 -9.9 -9.999 -99.9 -99.99 -9.99
2019/09/17 04:42 EDT  -99.99 -99.99   10   37   11 -99.9 -99.9 1015.9 -9.9 -9.999 -99.9 -99.99 -9.99
2019/09/17 04:48 EDT  -99.99 -99.99   11   41   11 -99.9 -99.9 1016.0 -9.9 -9.999 -99.9 -99.99 -9.99
2019/09/17 04:54 EDT  -99.99 -99.99   10   41   11 -99.9 -99.9 1016.0 -9.9 -9.999 -99.9 -99.99 -9.99
2019/09/17 05:00 EDT  -99.99 -99.99   10   37   11 -99.9 -99.9 1016.0 -9.9 -9.999 -99.9 -99.99 -9.99
2019/09/17 05:06 EDT  -99.99 -99.99   11   33   12 -99.9 -99.9 1016.0 -9.9 -9.999 -99.9 -99.99 -9.99
2019/09/17 05:12 EDT  -99.99 -99.99   11   34   13 -99.9 -99.9 1016.0 -9.9 -9.999 -99.9 -99.99 -9.99
2019/09/17 05:18 EDT  -99.99 -99.99   12   31   13 -99.9 -99.9 1016.0 -9.9 -9.999 -99.9 -99.99 -9.99
2019/09/17 05:24 EDT  -99.99 -99.99   13   34   14 -99.9 -99.9 1015.9 -9.9 -9.999 -99.9 -99.99 -9.99
2019/09/17 05:30 EDT  -99.99 -99.99   13   34   14 -99.9 -99.9 1016.0 -9.9 -9.999 -99.9 -99.99 -9.99
2019/09/17 05:36 EDT  -99.99 -99.99   12   34   13 -99.9 -99.9 1016.0 -9.9 -9.999 -99.9 -99.99 -9.99
2019/09/17 05:42 EDT  -99.99 -99.99   12   31   14 -99.9 -99.9 1016.0 -9.9 -9.999 -99.9 -99.99 -9.99
2019/09/17 05:48 EDT  -99.99 -99.99   11   38   13 -99.9 -99.9 1016.0 -9.9 -9.999 -99.9 -99.99 -9.99
2019/09/17 05:54 EDT  -99.99 -99.99   11   39   12 -99.9 -99.9 1016.0 -9.9 -9.999 -99.9 -99.99 -9.99
2019/09/17 06:00 EDT  -99.99 -99.99   11   35   12 -99.9 -99.9 1016.1 -9.9 -9.999 -99.9 -99.99 -9.99
2019/09/17 06:06 EDT  -99.99 -99.99   11   37   13 -99.9 -99.9 1016.2 -9.9 -9.999 -99.9 -99.99 -9.99
2019/09/17 06:12 EDT  -99.99 -99.99   11   34   13 -99.9 -99.9 1016.3 -9.9 -9.999 -99.9 -99.99 -9.99
2019/09/17 06:18 EDT  -99.99 -99.99   13   35   14 -99.9 -99.9 1016.3 -9.9 -9.999 -99.9 -99.99 -9.99
2019/09/17 06:24 EDT  -99.99 -99.99   13   32   15 -99.9 -99.9 1016.3 -9.9 -9.999 -99.9 -99.99 -9.99
2019/09/17 06:30 EDT  -99.99 -99.99   14   37   15 -99.9 -99.9 1016.4 -9.9 -9.999 -99.9 -99.99 -9.99
2019/09/17 06:36 EDT  -99.99 -99.99   14   42   16 -99.9 -99.9 1016.5 -9.9 -9.999 -99.9 -99.99 -9.99
2019/09/17 06:42 EDT  -99.99 -99.99   14   44   16 -99.9 -99.9 1016.5 -9.9 -9.999 -99.9 -99.99 -9.99
2019/09/17 06:48 EDT  -99.99 -99.99   13   44   15 -99.9 -99.9 1016.6 -9.9 -9.999 -99.9 -99.99 -9.99
2019/09/17 06:54 EDT  -99.99 -99.99   15   41   16 -99.9 -99.9 1016.7 -9.9 -9.999 -99.9 -99.99 -9.99
2019/09/17 07:00 EDT  -99.99 -99.99   15   39   17 -99.9 -99.9 1016.8 -9.9 -9.999 -99.9 -99.99 -9.99
2019/09/17 07:06 EDT  -99.99 -99.99   14   43   17 -99.9 -99.9 1016.8 -9.9 -9.999 -99.9 -99.99 -9.99
2019/09/17 07:12 EDT  -99.99 -99.99   15   45   17 -99.9 -99.9 1016.9 -9.9 -9.999 -99.9 -99.99 -9.99
2019/09/17 07:18 EDT  -99.99 -99.99   15   39   16 -99.9 -99.9 1017.0 -9.9 -9.999 -99.9 -99.99 -9.99
2019/09/17 07:24 EDT  -99.99 -99.99   14   42   17 -99.9 -99.9 1017.0 -9.9 -9.999 -99.9 -99.99 -9.99
2019/09/17 07:30 EDT  -99.99 -99.99   15   48   18 -99.9 -99.9 1017.1 -9.9 -9.999 -99.9 -99.99 -9.99
2019/09/17 07:36 EDT  -99.99 -99.99   15   48   18 -99.9 -99.9 1017.1 -9.9 -9.999 -99.9 -99.99 -9.99
2019/09/17 07:42 EDT  -99.99 -99.99   15   54   17 -99.9 -99.9 1017.3 -9.9 -9.999 -99.9 -99.99 -9.99
2019/09/17 07:48 EDT  -99.99 -99.99   14   54   16 -99.9 -99.9 1017.3 -9.9 -9.999 -99.9 -99.99 -9.99
2019/09/17 07:54 EDT  -99.99 -99.99   14   49   16 -99.9 -99.9 1017.3 -9.9 -9.999 -99.9 -99.99 -9.99
2019/09/17 08:00 EDT  -99.99 -99.99   13   57   16 -99.9 -99.9 1017.5 -9.9 -9.999 -99.9 -99.99 -9.99
2019/09/17 08:06 EDT  -99.99 -99.99   12   61   15 -99.9 -99.9 1017.5 -9.9 -9.999 -99.9 -99.99 -9.99
2019/09/17 08:12 EDT  -99.99 -99.99   12   58   14 -99.9 -99.9 1017.6 -9.9 -9.999 -99.9 -99.99 -9.99
2019/09/17 08:18 EDT  -99.99 -99.99   11   65   13 -99.9 -99.9 1017.6 -9.9 -9.999 -99.9 -99.99 -9.99
2019/09/17 08:24 EDT  -99.99 -99.99   12   61   13 -99.9 -99.9 1017.7 -9.9 -9.999 -99.9 -99.99 -9.99
2019/09/17 08:30 EDT  -99.99 -99.99   12   61   15 -99.9 -99.9 1017.7 -9.9 -9.999 -99.9 -99.99 -9.99
2019/09/17 08:36 EDT  -99.99 -99.99   13   59   15 -99.9 -99.9 1017.7 -9.9 -9.999 -99.9 -99.99 -9.99
2019/09/17 08:42 EDT  -99.99 -99.99   13   52   14 -99.9 -99.9 1017.7 -9.9 -9.999 -99.9 -99.99 -9.99
2019/09/17 08:48 EDT  -99.99 -99.99   12   53   14 -99.9 -99.9 1017.7 -9.9 -9.999 -99.9 -99.99 -9.99
2019/09/17 08:54 EDT  -99.99 -99.99   11   57   16 -99.9 -99.9 1017.8 -9.9 -9.999 -99.9 -99.99 -9.99
2019/09/17 09:00 EDT  -99.99 -99.99   14   57   15 -99.9 -99.9 1017.8 -9.9 -9.999 -99.9 -99.99 -9.99
2019/09/17 09:06 EDT  -99.99 -99.99   16   62   19 -99.9 -99.9 1017.9 -9.9 -9.999 -99.9 -99.99 -9.99
2019/09/17 09:12 EDT  -99.99 -99.99   16   57   19 -99.9 -99.9 1017.9 -9.9 -9.999 -99.9 -99.99 -9.99
2019/09/17 09:18 EDT  -99.99 -99.99   17   58   20 -99.9 -99.9 1017.9 -9.9 -9.999 -99.9 -99.99 -9.99
2019/09/17 09:24 EDT  -99.99 -99.99   17   56   21 -99.9 -99.9 1017.9 -9.9 -9.999 -99.9 -99.99 -9.99
2019/09/17 09:30 EDT  -99.99 -99.99   18   64   24 -99.9 -99.9 1017.9 -9.9 -9.999 -99.9 -99.99 -9.99
2019/09/17 09:36 EDT  -99.99 -99.99   19   71   22 -99.9 -99.9 1017.9 -9.9 -9.999 -99.9 -99.99 -9.99
2019/09/17 09:42 EDT  -99.99 -99.99   19   66   22 -99.9 -99.9 1017.9 -9.9 -9.999 -99.9 -99.99 -9.99
2019/09/17 09:48 EDT  -99.99 -99.99   18   71   22 -99.9 -99.9 1018.0 -9.9 -9.999 -99.9 -99.99 -9.99
2019/09/17 09:54 EDT  -99.99 -99.99   17   63   22 -99.9 -99.9 1018.0 -9.9 -9.999 -99.9 -99.99 -9.99
2019/09/17 10:00 EDT  -99.99 -99.99   19   73   22 -99.9 -99.9 1018.2 -9.9 -9.999 -99.9 -99.99 -9.99
2019/09/17 10:06 EDT  -99.99 -99.99   20   71   22 -99.9 -99.9 1018.3 -9.9 -9.999 -99.9 -99.99 -9.99
2019/09/17 10:12 EDT  -99.99 -99.99   20   66   24 -99.9 -99.9 1018.3 -9.9 -9.999 -99.9 -99.99 -9.99
2019/09/17 10:18 EDT  -99.99 -99.99   20   64   24 -99.9 -99.9 1018.4 -9.9 -9.999 -99.9 -99.99 -9.99
2019/09/17 10:24 EDT  -99.99 -99.99   19   60   24 -99.9 -99.9 1018.5 -9.9 -9.999 -99.9 -99.99 -9.99
2019/09/17 10:30 EDT  -99.99 -99.99   19   67   20 -99.9 -99.9 1018.6 -9.9 -9.999 -99.9 -99.99 -9.99
2019/09/17 10:36 EDT  -99.99 -99.99   15   70   21 -99.9 -99.9 1018.6 -9.9 -9.999 -99.9 -99.99 -9.99
2019/09/17 10:42 EDT  -99.99 -99.99   16   67   20 -99.9 -99.9 1018.6 -9.9 -9.999 -99.9 -99.99 -9.99
2019/09/17 10:48 EDT  -99.99 -99.99   18   57   20 -99.9 -99.9 1018.7 -9.9 -9.999 -99.9 -99.99 -9.99
2019/09/17 10:54 EDT  -99.99 -99.99   18   53   21 -99.9 -99.9 1018.8 -9.9 -9.999 -99.9 -99.99 -9.99
2019/09/17 11:00 EDT  -99.99 -99.99   18   51   21 -99.9 -99.9 1018.7 -9.9 -9.999 -99.9 -99.99 -9.99
2019/09/17 11:06 EDT  -99.99 -99.99   17   69   21 -99.9 -99.9 1018.8 -9.9 -9.999 -99.9 -99.99 -9.99
2019/09/17 11:12 EDT  -99.99 -99.99   21   58   23 -99.9 -99.9 1018.8 -9.9 -9.999 -99.9 -99.99 -9.99
2019/09/17 11:18 EDT  -99.99 -99.99   21   64   23 -99.9 -99.9 1018.8 -9.9 -9.999 -99.9 -99.99 -9.99
2019/09/17 11:24 EDT  -99.99 -99.99   19   64   23 -99.9 -99.9 1018.8 -9.9 -9.999 -99.9 -99.99 -9.99
2019/09/17 11:30 EDT  -99.99 -99.99   20   61   23 -99.9 -99.9 1018.8 -9.9 -9.999 -99.9 -99.99 -9.99
2019/09/17 11:36 EDT  -99.99 -99.99   20   52   23 -99.9 -99.9 1018.8 -9.9 -9.999 -99.9 -99.99 -9.99
2019/09/17 11:42 EDT  -99.99 -99.99   17   61   23 -99.9 -99.9 1018.8 -9.9 -9.999 -99.9 -99.99 -9.99
2019/09/17 11:48 EDT  -99.99 -99.99   17   65   23 -99.9 -99.9 1018.9 -9.9 -9.999 -99.9 -99.99 -9.99
2019/09/17 11:54 EDT  -99.99 -99.99   15   61   19 -99.9 -99.9 1019.0 -9.9 -9.999 -99.9 -99.99 -9.99
2019/09/17 12:00 EDT  -99.99 -99.99   15   47   18 -99.9 -99.9 1019.1 -9.9 -9.999 -99.9 -99.99 -9.99
2019/09/17 12:06 EDT  -99.99 -99.99   13   49   19 -99.9 -99.9 1019.2 -9.9 -9.999 -99.9 -99.99 -9.99
2019/09/17 12:12 EDT  -99.99 -99.99   15   45   16 -99.9 -99.9 1019.2 -9.9 -9.999 -99.9 -99.99 -9.99
2019/09/17 12:18 EDT  -99.99 -99.99   15   59   19 -99.9 -99.9 1019.1 -9.9 -9.999 -99.9 -99.99 -9.99
2019/09/17 12:24 EDT  -99.99 -99.99   14   57   18 -99.9 -99.9 1019.1 -9.9 -9.999 -99.9 -99.99 -9.99
2019/09/17 12:30 EDT  -99.99 -99.99   17   50   20 -99.9 -99.9 1019.0 -9.9 -9.999 -99.9 -99.99 -9.99
2019/09/17 12:36 EDT  -99.99 -99.99   16   70   20 -99.9 -99.9 1019.0 -9.9 -9.999 -99.9 -99.99 -9.99
2019/09/17 12:42 EDT  -99.99 -99.99   17   52   18 -99.9 -99.9 1019.1 -9.9 -9.999 -99.9 -99.99 -9.99
2019/09/17 12:48 EDT  -99.99 -99.99   15   59   17 -99.9 -99.9 1019.0 -9.9 -9.999 -99.9 -99.99 -9.99
2019/09/17 12:54 EDT  -99.99 -99.99   18   61   24 -99.9 -99.9 1019.0 -9.9 -9.999 -99.9 -99.99 -9.99
2019/09/17 13:00 EDT  -99.99 -99.99   17   55   21 -99.9 -99.9 1019.0 -9.9 -9.999 -99.9 -99.99 -9.99
2019/09/17 13:06 EDT  -99.99 -99.99   17   61   20 -99.9 -99.9 1019.0 -9.9 -9.999 -99.9 -99.99 -9.99
2019/09/17 13:12 EDT  -99.99 -99.99   16   67   21 -99.9 -99.9 1019.0 -9.9 -9.999 -99.9 -99.99 -9.99
2019/09/17 13:18 EDT  -99.99 -99.99   18   64   21 -99.9 -99.9 1019.0 -9.9 -9.999 -99.9 -99.99 -9.99
2019/09/17 13:24 EDT  -99.99 -99.99   19   54   21 -99.9 -99.9 1018.9 -9.9 -9.999 -99.9 -99.99 -9.99
2019/09/17 13:30 EDT  -99.99 -99.99   16   58   20 -99.9 -99.9 1018.8 -9.9 -9.999 -99.9 -99.99 -9.99
2019/09/17 13:36 EDT  -99.99 -99.99   14   59   19 -99.9 -99.9 1018.9 -9.9 -9.999 -99.9 -99.99 -9.99
2019/09/17 13:42 EDT  -99.99 -99.99   16   63   18 -99.9 -99.9 1018.9 -9.9 -9.999 -99.9 -99.99 -9.99
2019/09/17 13:48 EDT  -99.99 -99.99   16   64   18 -99.9 -99.9 1018.9 -9.9 -9.999 -99.9 -99.99 -9.99
2019/09/17 13:54 EDT  -99.99 -99.99   17   62   19 -99.9 -99.9 1019.0 -9.9 -9.999 -99.9 -99.99 -9.99
2019/09/17 14:00 EDT  -99.99 -99.99   16   57   19 -99.9 -99.9 1018.9 -9.9 -9.999 -99.9 -99.99 -9.99
2019/09/17 14:06 EDT  -99.99 -99.99   16   64   18 -99.9 -99.9 1018.9 -9.9 -9.999 -99.9 -99.99 -9.99
2019/09/17 14:12 EDT  -99.99 -99.99   17   66   18 -99.9 -99.9 1018.8 -9.9 -9.999 -99.9 -99.99 -9.99
2019/09/17 14:18 EDT  -99.99 -99.99   17   61   20 -99.9 -99.9 1018.7 -9.9 -9.999 -99.9 -99.99 -9.99
2019/09/17 14:24 EDT  -99.99 -99.99   16   50   18 -99.9 -99.9 1018.6 -9.9 -9.999 -99.9 -99.99 -9.99
2019/09/17 14:30 EDT  -99.99 -99.99   16   55   21 -99.9 -99.9 1018.6 -9.9 -9.999 -99.9 -99.99 -9.99
2019/09/17 14:36 EDT  -99.99 -99.99   18   46   22 -99.9 -99.9 1018.5 -9.9 -9.999 -99.9 -99.99 -9.99
2019/09/17 14:42 EDT  -99.99 -99.99   18   63   20 -99.9 -99.9 1018.6 -9.9 -9.999 -99.9 -99.99 -9.99
2019/09/17 14:48 EDT  -99.99 -99.99   18   69   23 -99.9 -99.9 1018.5 -9.9 -9.999 -99.9 -99.99 -9.99
2019/09/17 14:54 EDT  -99.99 -99.99   22   67   24 -99.9 -99.9 1018.5 -9.9 -9.999 -99.9 -99.99 -9.99
2019/09/17 15:00 EDT  -99.99 -99.99   17   57   22 -99.9 -99.9 1018.6 -9.9 -9.999 -99.9 -99.99 -9.99
2019/09/17 15:06 EDT  -99.99 -99.99   17   59   20 -99.9 -99.9 1018.6 -9.9 -9.999 -99.9 -99.99 -9.99
2019/09/17 15:12 EDT  -99.99 -99.99   17   61   21 -99.9 -99.9 1018.5 -9.9 -9.999 -99.9 -99.99 -9.99
2019/09/17 15:18 EDT  -99.99 -99.99   15   66   21 -99.9 -99.9 1018.6 -9.9 -9.999 -99.9 -99.99 -9.99
2019/09/17 15:24 EDT  -99.99 -99.99   18   64   21 -99.9 -99.9 1018.6 -9.9 -9.999 -99.9 -99.99 -9.99
2019/09/17 15:30 EDT  -99.99 -99.99   18   59   21 -99.9 -99.9 1018.6 -9.9 -9.999 -99.9 -99.99 -9.99
2019/09/17 15:36 EDT  -99.99 -99.99   18   65   22 -99.9 -99.9 1018.6 -9.9 -9.999 -99.9 -99.99 -9.99
2019/09/17 15:42 EDT  -99.99 -99.99   15   56   17 -99.9 -99.9 1018.6 -9.9 -9.999 -99.9 -99.99 -9.99
2019/09/17 15:48 EDT  -99.99 -99.99   16   58   18 -99.9 -99.9 1018.6 -9.9 -9.999 -99.9 -99.99 -9.99
2019/09/17 15:54 EDT  -99.99 -99.99   17   62   20 -99.9 -99.9 1018.5 -9.9 -9.999 -99.9 -99.99 -9.99
2019/09/17 16:00 EDT  -99.99 -99.99   17   51   22 -99.9 -99.9 1018.5 -9.9 -9.999 -99.9 -99.99 -9.99
2019/09/17 16:06 EDT  -99.99 -99.99   18   56   22 -99.9 -99.9 1018.6 -9.9 -9.999 -99.9 -99.99 -9.99
2019/09/17 16:12 EDT  -99.99 -99.99   17   52   21 -99.9 -99.9 1018.6 -9.9 -9.999 -99.9 -99.99 -9.99
2019/09/17 16:18 EDT  -99.99 -99.99   17   49   20 -99.9 -99.9 1018.5 -9.9 -9.999 -99.9 -99.99 -9.99
2019/09/17 16:24 EDT  -99.99 -99.99   17   61   19 -99.9 -99.9 1018.5 -9.9 -9.999 -99.9 -99.99 -9.99
2019/09/17 16:30 EDT  -99.99 -99.99   17   63   20 -99.9 -99.9 1018.5 -9.9 -9.999 -99.9 -99.99 -9.99
2019/09/17 16:36 EDT  -99.99 -99.99   17   45   21 -99.9 -99.9 1018.5 -9.9 -9.999 -99.9 -99.99 -9.99
2019/09/17 16:42 EDT  -99.99 -99.99   17   52   19 -99.9 -99.9 1018.5 -9.9 -9.999 -99.9 -99.99 -9.99
2019/09/17 16:48 EDT  -99.99 -99.99   18   54   21 -99.9 -99.9 1018.5 -9.9 -9.999 -99.9 -99.99 -9.99
2019/09/17 16:54 EDT  -99.99 -99.99   18   66   20 -99.9 -99.9 1018.5 -9.9 -9.999 -99.9 -99.99 -9.99
2019/09/17 17:00 EDT  -99.99 -99.99   19   56   24 -99.9 -99.9 1018.5 -9.9 -9.999 -99.9 -99.99 -9.99
2019/09/17 17:06 EDT  -99.99 -99.99   17   62   21 -99.9 -99.9 1018.6 -9.9 -9.999 -99.9 -99.99 -9.99
2019/09/17 17:12 EDT  -99.99 -99.99   18   59   21 -99.9 -99.9 1018.7 -9.9 -9.999 -99.9 -99.99 -9.99
2019/09/17 17:18 EDT  -99.99 -99.99   17   61   19 -99.9 -99.9 1018.7 -9.9 -9.999 -99.9 -99.99 -9.99
2019/09/17 17:24 EDT  -99.99 -99.99   18   64   21 -99.9 -99.9 1018.7 -9.9 -9.999 -99.9 -99.99 -9.99
2019/09/17 17:30 EDT  -99.99 -99.99   18   62   22 -99.9 -99.9 1018.8 -9.9 -9.999 -99.9 -99.99 -9.99
2019/09/17 17:36 EDT  -99.99 -99.99   18   75   21 -99.9 -99.9 1018.8 -9.9 -9.999 -99.9 -99.99 -9.99
2019/09/17 17:42 EDT  -99.99 -99.99   19   64   22 -99.9 -99.9 1018.9 -9.9 -9.999 -99.9 -99.99 -9.99
2019/09/17 17:48 EDT  -99.99 -99.99   19   67   21 -99.9 -99.9 1018.9 -9.9 -9.999 -99.9 -99.99 -9.99
2019/09/17 17:54 EDT  -99.99 -99.99   21   71   23 -99.9 -99.9 1018.9 -9.9 -9.999 -99.9 -99.99 -9.99
2019/09/17 18:00 EDT  -99.99 -99.99   21   74   23 -99.9 -99.9 1018.9 -9.9 -9.999 -99.9 -99.99 -9.99
2019/09/17 18:06 EDT  -99.99 -99.99   20   73   22 -99.9 -99.9 1019.0 -9.9 -9.999 -99.9 -99.99 -9.99
2019/09/17 18:12 EDT  -99.99 -99.99   19   70   22 -99.9 -99.9 1019.1 -9.9 -9.999 -99.9 -99.99 -9.99
2019/09/17 18:18 EDT  -99.99 -99.99   20   64   22 -99.9 -99.9 1019.1 -9.9 -9.999 -99.9 -99.99 -9.99
2019/09/17 18:24 EDT  -99.99 -99.99   19   67   22 -99.9 -99.9 1019.1 -9.9 -9.999 -99.9 -99.99 -9.99
2019/09/17 18:30 EDT  -99.99 -99.99   18   67   21 -99.9 -99.9 1019.1 -9.9 -9.999 -99.9 -99.99 -9.99
2019/09/17 18:36 EDT  -99.99 -99.99   18   61   20 -99.9 -99.9 1019.2 -9.9 -9.999 -99.9 -99.99 -9.99
2019/09/17 18:42 EDT  -99.99 -99.99   17   55   19 -99.9 -99.9 1019.1 -9.9 -9.999 -99.9 -99.99 -9.99
2019/09/17 18:48 EDT  -99.99 -99.99   15   62   19 -99.9 -99.9 1019.3 -9.9 -9.999 -99.9 -99.99 -9.99
2019/09/17 18:54 EDT  -99.99 -99.99   16   57   18 -99.9 -99.9 1019.4 -9.9 -9.999 -99.9 -99.99 -9.99
2019/09/17 19:00 EDT  -99.99 -99.99   14   60   17 -99.9 -99.9 1019.5 -9.9 -9.999 -99.9 -99.99 -9.99
2019/09/17 19:06 EDT  -99.99 -99.99   14   60   17 -99.9 -99.9 1019.6 -9.9 -9.999 -99.9 -99.99 -9.99
2019/09/17 19:12 EDT  -99.99 -99.99   15   57   17 -99.9 -99.9 1019.6 -9.9 -9.999 -99.9 -99.99 -9.99
2019/09/17 19:18 EDT  -99.99 -99.99   15   53   17 -99.9 -99.9 1019.6 -9.9 -9.999 -99.9 -99.99 -9.99
2019/09/17 19:24 EDT  -99.99 -99.99   14   50   17 -99.9 -99.9 1019.6 -9.9 -9.999 -99.9 -99.99 -9.99
2019/09/17 19:30 EDT  -99.99 -99.99   16   61   18 -99.9 -99.9 1019.6 -9.9 -9.999 -99.9 -99.99 -9.99
2019/09/17 19:36 EDT  -99.99 -99.99   16   55   18 -99.9 -99.9 1019.6 -9.9 -9.999 -99.9 -99.99 -9.99
2019/09/17 19:42 EDT  -99.99 -99.99   16   53   18 -99.9 -99.9 1019.6 -9.9 -9.999 -99.9 -99.99 -9.99
2019/09/17 19:48 EDT  -99.99 -99.99   16   57   18 -99.9 -99.9 1019.5 -9.9 -9.999 -99.9 -99.99 -9.99
2019/09/17 19:54 EDT  -99.99 -99.99   16   56   19 -99.9 -99.9 1019.6 -9.9 -9.999 -99.9 -99.99 -9.99
2019/09/17 20:00 EDT  -99.99 -99.99   17   51   20 -99.9 -99.9 1019.6 -9.9 -9.999 -99.9 -99.99 -9.99
2019/09/17 20:06 EDT  -99.99 -99.99   14   43   17 -99.9 -99.9 1019.7 -9.9 -9.999 -99.9 -99.99 -9.99
2019/09/17 20:12 EDT  -99.99 -99.99   14   46   17 -99.9 -99.9 1019.7 -9.9 -9.999 -99.9 -99.99 -9.99
2019/09/17 20:18 EDT  -99.99 -99.99   16   39   19 -99.9 -99.9 1019.7 -9.9 -9.999 -99.9 -99.99 -9.99
2019/09/17 20:24 EDT  -99.99 -99.99   15   44   18 -99.9 -99.9 1019.7 -9.9 -9.999 -99.9 -99.99 -9.99
2019/09/17 20:30 EDT  -99.99 -99.99   16   40   19 -99.9 -99.9 1019.8 -9.9 -9.999 -99.9 -99.99 -9.99
2019/09/17 20:36 EDT  -99.99 -99.99   17   43   19 -99.9 -99.9 1019.8 -9.9 -9.999 -99.9 -99.99 -9.99
2019/09/17 20:42 EDT  -99.99 -99.99   16   40   19 -99.9 -99.9 1019.8 -9.9 -9.999 -99.9 -99.99 -9.99
2019/09/17 20:48 EDT  -99.99 -99.99   16   43   17 -99.9 -99.9 1019.8 -9.9 -9.999 -99.9 -99.99 -9.99
2019/09/17 20:54 EDT  -99.99 -99.99   16   49   18 -99.9 -99.9 1019.8 -9.9 -9.999 -99.9 -99.99 -9.99
2019/09/17 21:00 EDT  -99.99 -99.99   16   52   18 -99.9 -99.9 1019.8 -9.9 -9.999 -99.9 -99.99 -9.99
2019/09/17 21:06 EDT  -99.99 -99.99   16   50   17 -99.9 -99.9 1019.9 -9.9 -9.999 -99.9 -99.99 -9.99
2019/09/17 21:12 EDT  -99.99 -99.99   16   46   18 -99.9 -99.9 1019.8 -9.9 -9.999 -99.9 -99.99 -9.99
2019/09/17 21:18 EDT  -99.99 -99.99   15   46   19 -99.9 -99.9 1019.8 -9.9 -9.999 -99.9 -99.99 -9.99
2019/09/17 21:24 EDT  -99.99 -99.99   15   45   18 -99.9 -99.9 1019.8 -9.9 -9.999 -99.9 -99.99 -9.99
2019/09/17 21:30 EDT  -99.99 -99.99   15   42   17 -99.9 -99.9 1019.8 -9.9 -9.999 -99.9 -99.99 -9.99
2019/09/17 21:36 EDT  -99.99 -99.99   15   45   17 -99.9 -99.9 1019.9 -9.9 -9.999 -99.9 -99.99 -9.99
2019/09/17 21:42 EDT  -99.99 -99.99   14   44   16 -99.9 -99.9 1019.9 -9.9 -9.999 -99.9 -99.99 -9.99
2019/09/17 21:48 EDT  -99.99 -99.99   14   43   17 -99.9 -99.9 1019.9 -9.9 -9.999 -99.9 -99.99 -9.99
2019/09/17 21:54 EDT  -99.99 -99.99   16   44   17 -99.9 -99.9 1019.9 -9.9 -9.999 -99.9 -99.99 -9.99
2019/09/17 22:00 EDT  -99.99 -99.99   15   47   17 -99.9 -99.9 1019.9 -9.9 -9.999 -99.9 -99.99 -9.99
2019/09/17 22:06 EDT  -99.99 -99.99   14   44   17 -99.9 -99.9 1019.9 -9.9 -9.999 -99.9 -99.99 -9.99
2019/09/17 22:12 EDT  -99.99 -99.99   13   42   17 -99.9 -99.9 1019.9 -9.9 -9.999 -99.9 -99.99 -9.99
2019/09/17 22:18 EDT  -99.99 -99.99   12   38   16 -99.9 -99.9 1019.9 -9.9 -9.999 -99.9 -99.99 -9.99
2019/09/17 22:24 EDT  -99.99 -99.99   13   40   16 -99.9 -99.9 1019.9 -9.9 -9.999 -99.9 -99.99 -9.99
2019/09/17 22:30 EDT  -99.99 -99.99   13   40   15 -99.9 -99.9 1019.8 -9.9 -9.999 -99.9 -99.99 -9.99
2019/09/17 22:36 EDT  -99.99 -99.99   12   39   15 -99.9 -99.9 1019.9 -9.9 -9.999 -99.9 -99.99 -9.99
2019/09/17 22:42 EDT  -99.99 -99.99   13   43   16 -99.9 -99.9 1019.9 -9.9 -9.999 -99.9 -99.99 -9.99
2019/09/17 22:48 EDT  -99.99 -99.99   12   39   16 -99.9 -99.9 1019.8 -9.9 -9.999 -99.9 -99.99 -9.99
2019/09/17 22:54 EDT  -99.99 -99.99   13   35   16 -99.9 -99.9 1019.8 -9.9 -9.999 -99.9 -99.99 -9.99
2019/09/17 23:00 EDT  -99.99 -99.99   13   38   15 -99.9 -99.9 1019.8 -9.9 -9.999 -99.9 -99.99 -9.99
2019/09/17 23:06 EDT  -99.99 -99.99   12   35   14 -99.9 -99.9 1019.8 -9.9 -9.999 -99.9 -99.99 -9.99
2019/09/17 23:12 EDT  -99.99 -99.99   12   42   15 -99.9 -99.9 1019.7 -9.9 -9.999 -99.9 -99.99 -9.99
2019/09/17 23:18 EDT  -99.99 -99.99   13   43   15 -99.9 -99.9 1019.7 -9.9 -9.999 -99.9 -99.99 -9.99
2019/09/17 23:24 EDT  -99.99 -99.99   12   47   14 -99.9 -99.9 1019.8 -9.9 -9.999 -99.9 -99.99 -9.99
2019/09/17 23:30 EDT  -99.99 -99.99   13   52   15 -99.9 -99.9 1019.8 -9.9 -9.999 -99.9 -99.99 -9.99
2019/09/17 23:36 EDT  -99.99 -99.99   12   54   15 -99.9 -99.9 1019.9 -9.9 -9.999 -99.9 -99.99 -9.99
2019/09/17 23:42 EDT  -99.99 -99.99   12   50   13 -99.9 -99.9 1019.9 -9.9 -9.999 -99.9 -99.99 -9.99
2019/09/17 23:48 EDT  -99.99 -99.99   11   59   13 -99.9 -99.9 1019.9 -9.9 -9.999 -99.9 -99.99 -9.99
2019/09/17 23:54 EDT  -99.99 -99.99   12   55   14 -99.9 -99.9 1019.9 -9.9 -9.999 -99.9 -99.99 -9.99
2019/09/18 00:00 EDT  -99.99 -99.99   12   55   14 -99.9 -99.9 1019.9 -9.9 -9.999 -99.9 -99.99 -9.99
2019/09/18 00:06 EDT  -99.99 -99.99   11   51   14 -99.9 -99.9 1019.8 -9.9 -9.999 -99.9 -99.99 -9.99
2019/09/18 00:12 EDT  -99.99 -99.99   11   48   14 -99.9 -99.9 1019.7 -9.9 -9.999 -99.9 -99.99 -9.99
2019/09/18 00:18 EDT  -99.99 -99.99   10   53   12 -99.9 -99.9 1019.7 -9.9 -9.999 -99.9 -99.99 -9.99
2019/09/18 00:24 EDT  -99.99 -99.99   10   53   11 -99.9 -99.9 1019.6 -9.9 -9.999 -99.9 -99.99 -9.99
2019/09/18 00:30 EDT  -99.99 -99.99   10   53   12 -99.9 -99.9 1019.6 -9.9 -9.999 -99.9 -99.99 -9.99
2019/09/18 00:36 EDT  -99.99 -99.99   10   48   12 -99.9 -99.9 1019.6 -9.9 -9.999 -99.9 -99.99 -9.99
2019/09/18 00:42 EDT  -99.99 -99.99   10   49   13 -99.9 -99.9 1019.6 -9.9 -9.999 -99.9 -99.99 -9.99
2019/09/18 00:48 EDT  -99.99 -99.99   11   44   12 -99.9 -99.9 1019.6 -9.9 -9.999 -99.9 -99.99 -9.99
2019/09/18 00:54 EDT  -99.99 -99.99   11   46   13 -99.9 -99.9 1019.6 -9.9 -9.999 -99.9 -99.99 -9.99
2019/09/18 01:00 EDT  -99.99 -99.99   12   48   13 -99.9 -99.9 1019.6 -9.9 -9.999 -99.9 -99.99 -9.99
2019/09/18 01:06 EDT  -99.99 -99.99   13   49   15 -99.9 -99.9 1019.6 -9.9 -9.999 -99.9 -99.99 -9.99
2019/09/18 01:12 EDT  -99.99 -99.99   12   49   14 -99.9 -99.9 1019.6 -9.9 -9.999 -99.9 -99.99 -9.99
2019/09/18 01:18 EDT  -99.99 -99.99   11   54   13 -99.9 -99.9 1019.7 -9.9 -9.999 -99.9 -99.99 -9.99
2019/09/18 01:24 EDT  -99.99 -99.99   12   47   13 -99.9 -99.9 1019.7 -9.9 -9.999 -99.9 -99.99 -9.99
2019/09/18 01:30 EDT  -99.99 -99.99   13   45   14 -99.9 -99.9 1019.7 -9.9 -9.999 -99.9 -99.99 -9.99
2019/09/18 01:36 EDT  -99.99 -99.99   12   45   15 -99.9 -99.9 1019.7 -9.9 -9.999 -99.9 -99.99 -9.99
2019/09/18 01:42 EDT  -99.99 -99.99   14   42   15 -99.9 -99.9 1019.8 -9.9 -9.999 -99.9 -99.99 -9.99
2019/09/18 01:48 EDT  -99.99 -99.99   14   42   16 -99.9 -99.9 1019.8 -9.9 -9.999 -99.9 -99.99 -9.99
2019/09/18 01:54 EDT  -99.99 -99.99   14   46   16 -99.9 -99.9 1019.8 -9.9 -9.999 -99.9 -99.99 -9.99
2019/09/18 02:00 EDT  -99.99 -99.99   14   43   16 -99.9 -99.9 1019.8 -9.9 -9.999 -99.9 -99.99 -9.99
2019/09/18 02:06 EDT  -99.99 -99.99   16   42   18 -99.9 -99.9 1019.7 -9.9 -9.999 -99.9 -99.99 -9.99
2019/09/18 02:12 EDT  -99.99 -99.99   15   42   18 -99.9 -99.9 1019.8 -9.9 -9.999 -99.9 -99.99 -9.99
2019/09/18 02:18 EDT  -99.99 -99.99   14   41   17 -99.9 -99.9 1019.8 -9.9 -9.999 -99.9 -99.99 -9.99
2019/09/18 02:24 EDT  -99.99 -99.99   16   37   17 -99.9 -99.9 1019.8 -9.9 -9.999 -99.9 -99.99 -9.99
2019/09/18 02:30 EDT  -99.99 -99.99   16   40   18 -99.9 -99.9 1019.9 -9.9 -9.999 -99.9 -99.99 -9.99
2019/09/18 02:36 EDT  -99.99 -99.99   16   39   18 -99.9 -99.9 1019.9 -9.9 -9.999 -99.9 -99.99 -9.99
2019/09/18 02:42 EDT  -99.99 -99.99   16   40   18 -99.9 -99.9 1019.9 -9.9 -9.999 -99.9 -99.99 -9.99
2019/09/18 02:48 EDT  -99.99 -99.99   17   41   19 -99.9 -99.9 1019.9 -9.9 -9.999 -99.9 -99.99 -9.99
2019/09/18 02:54 EDT  -99.99 -99.99   15   41   18 -99.9 -99.9 1020.0 -9.9 -9.999 -99.9 -99.99 -9.99
2019/09/18 03:00 EDT  -99.99 -99.99   16   42   18 -99.9 -99.9 1019.9 -9.9 -9.999 -99.9 -99.99 -9.99
2019/09/18 03:06 EDT  -99.99 -99.99   16   39   18 -99.9 -99.9 1019.9 -9.9 -9.999 -99.9 -99.99 -9.99
2019/09/18 03:12 EDT  -99.99 -99.99   17   42   18 -99.9 -99.9 1019.9 -9.9 -9.999 -99.9 -99.99 -9.99
2019/09/18 03:18 EDT  -99.99 -99.99   16   40   18 -99.9 -99.9 1019.8 -9.9 -9.999 -99.9 -99.99 -9.99
2019/09/18 03:24 EDT  -99.99 -99.99   16   38   18 -99.9 -99.9 1019.8 -9.9 -9.999 -99.9 -99.99 -9.99
2019/09/18 03:30 EDT  -99.99 -99.99   16   39   19 -99.9 -99.9 1019.8 -9.9 -9.999 -99.9 -99.99 -9.99
2019/09/18 03:36 EDT  -99.99 -99.99   17   40   19 -99.9 -99.9 1019.9 -9.9 -9.999 -99.9 -99.99 -9.99
2019/09/18 03:42 EDT  -99.99 -99.99   16   40   19 -99.9 -99.9 1019.9 -9.9 -9.999 -99.9 -99.99 -9.99
2019/09/18 03:48 EDT  -99.99 -99.99   17   41   20 -99.9 -99.9 1019.9 -9.9 -9.999 -99.9 -99.99 -9.99
2019/09/18 03:54 EDT  -99.99 -99.99   16   43   19 -99.9 -99.9 1019.9 -9.9 -9.999 -99.9 -99.99 -9.99
2019/09/18 04:00 EDT  -99.99 -99.99   16   42   19 -99.9 -99.9 1020.0 -9.9 -9.999 -99.9 -99.99 -9.99
2019/09/18 04:06 EDT  -99.99 -99.99   17   40   20 -99.9 -99.9 1020.0 -9.9 -9.999 -99.9 -99.99 -9.99
2019/09/18 04:12 EDT  -99.99 -99.99   17   39   19 -99.9 -99.9 1020.1 -9.9 -9.999 -99.9 -99.99 -9.99
2019/09/18 04:18 EDT  -99.99 -99.99   17   38   19 -99.9 -99.9 1020.2 -9.9 -9.999 -99.9 -99.99 -9.99
2019/09/18 04:24 EDT  -99.99 -99.99   17   38   19 -99.9 -99.9 1020.2 -9.9 -9.999 -99.9 -99.99 -9.99
2019/09/18 04:30 EDT  -99.99 -99.99   18   42   19 -99.9 -99.9 1020.2 -9.9 -9.999 -99.9 -99.99 -9.99
2019/09/18 04:36 EDT  -99.99 -99.99   16   45   18 -99.9 -99.9 1020.2 -9.9 -9.999 -99.9 -99.99 -9.99
2019/09/18 04:42 EDT  -99.99 -99.99   17   42   19 -99.9 -99.9 1020.2 -9.9 -9.999 -99.9 -99.99 -9.99
2019/09/18 04:48 EDT  -99.99 -99.99   16   37   19 -99.9 -99.9 1020.2 -9.9 -9.999 -99.9 -99.99 -9.99
2019/09/18 04:54 EDT  -99.99 -99.99   16   38   19 -99.9 -99.9 1020.2 -9.9 -9.999 -99.9 -99.99 -9.99
2019/09/18 05:00 EDT  -99.99 -99.99   17   37   19 -99.9 -99.9 1020.2 -9.9 -9.999 -99.9 -99.99 -9.99
2019/09/18 05:06 EDT  -99.99 -99.99   17   39   20 -99.9 -99.9 1020.1 -9.9 -9.999 -99.9 -99.99 -9.99
2019/09/18 05:12 EDT  -99.99 -99.99   17   37   20 -99.9 -99.9 1020.2 -9.9 -9.999 -99.9 -99.99 -9.99
2019/09/18 05:18 EDT  -99.99 -99.99   17   36   20 -99.9 -99.9 1020.3 -9.9 -9.999 -99.9 -99.99 -9.99
2019/09/18 05:24 EDT  -99.99 -99.99   17   36   21 -99.9 -99.9 1020.3 -9.9 -9.999 -99.9 -99.99 -9.99
2019/09/18 05:30 EDT  -99.99 -99.99   17   39   19 -99.9 -99.9 1020.4 -9.9 -9.999 -99.9 -99.99 -9.99
2019/09/18 05:36 EDT  -99.99 -99.99   17   42   19 -99.9 -99.9 1020.4 -9.9 -9.999 -99.9 -99.99 -9.99
2019/09/18 05:42 EDT  -99.99 -99.99   16   38   20 -99.9 -99.9 1020.4 -9.9 -9.999 -99.9 -99.99 -9.99
2019/09/18 05:48 EDT  -99.99 -99.99   15   39   18 -99.9 -99.9 1020.5 -9.9 -9.999 -99.9 -99.99 -9.99
2019/09/18 05:54 EDT  -99.99 -99.99   17   33   18 -99.9 -99.9 1020.6 -9.9 -9.999 -99.9 -99.99 -9.99
2019/09/18 06:00 EDT  -99.99 -99.99   17   30   19 -99.9 -99.9 1020.6 -9.9 -9.999 -99.9 -99.99 -9.99
2019/09/18 06:06 EDT  -99.99 -99.99   17   31   19 -99.9 -99.9 1020.6 -9.9 -9.999 -99.9 -99.99 -9.99
2019/09/18 06:12 EDT  -99.99 -99.99   19   31   21 -99.9 -99.9 1020.7 -9.9 -9.999 -99.9 -99.99 -9.99
2019/09/18 06:18 EDT  -99.99 -99.99   17   28   20 -99.9 -99.9 1020.7 -9.9 -9.999 -99.9 -99.99 -9.99
2019/09/18 06:24 EDT  -99.99 -99.99   19   32   21 -99.9 -99.9 1020.6 -9.9 -9.999 -99.9 -99.99 -9.99
2019/09/18 06:30 EDT  -99.99 -99.99   18   31   21 -99.9 -99.9 1020.6 -9.9 -9.999 -99.9 -99.99 -9.99
2019/09/18 06:36 EDT  -99.99 -99.99   18   32   21 -99.9 -99.9 1020.7 -9.9 -9.999 -99.9 -99.99 -9.99
2019/09/18 06:42 EDT  -99.99 -99.99   19   32   21 -99.9 -99.9 1020.7 -9.9 -9.999 -99.9 -99.99 -9.99
2019/09/18 06:48 EDT  -99.99 -99.99   18   34   20 -99.9 -99.9 1020.8 -9.9 -9.999 -99.9 -99.99 -9.99
2019/09/18 06:54 EDT  -99.99 -99.99   18   31   21 -99.9 -99.9 1020.7 -9.9 -9.999 -99.9 -99.99 -9.99
2019/09/18 07:00 EDT  -99.99 -99.99   18   31   22 -99.9 -99.9 1020.8 -9.9 -9.999 -99.9 -99.99 -9.99
2019/09/18 07:06 EDT  -99.99 -99.99   20   31   22 -99.9 -99.9 1020.9 -9.9 -9.999 -99.9 -99.99 -9.99
2019/09/18 07:12 EDT  -99.99 -99.99   19   32   22 -99.9 -99.9 1021.0 -9.9 -9.999 -99.9 -99.99 -9.99
2019/09/18 07:18 EDT  -99.99 -99.99   19   34   22 -99.9 -99.9 1021.0 -9.9 -9.999 -99.9 -99.99 -9.99
2019/09/18 07:24 EDT  -99.99 -99.99   19   27   21 -99.9 -99.9 1021.1 -9.9 -9.999 -99.9 -99.99 -9.99
2019/09/18 07:30 EDT  -99.99 -99.99   19   25   22 -99.9 -99.9 1021.2 -9.9 -9.999 -99.9 -99.99 -9.99
2019/09/18 07:36 EDT  -99.99 -99.99   19   31   23 -99.9 -99.9 1021.3 -9.9 -9.999 -99.9 -99.99 -9.99
2019/09/18 07:42 EDT  -99.99 -99.99   20   27   22 -99.9 -99.9 1021.3 -9.9 -9.999 -99.9 -99.99 -9.99
2019/09/18 07:48 EDT  -99.99 -99.99   19   30   23 -99.9 -99.9 1021.4 -9.9 -9.999 -99.9 -99.99 -9.99
2019/09/18 07:54 EDT  -99.99 -99.99   20   30   22 -99.9 -99.9 1021.4 -9.9 -9.999 -99.9 -99.99 -9.99
2019/09/18 08:00 EDT  -99.99 -99.99   19   27   22 -99.9 -99.9 1021.5 -9.9 -9.999 -99.9 -99.99 -9.99
2019/09/18 08:06 EDT  -99.99 -99.99   19   31   22 -99.9 -99.9 1021.5 -9.9 -9.999 -99.9 -99.99 -9.99
2019/09/18 08:12 EDT  -99.99 -99.99   18   32   20 -99.9 -99.9 1021.5 -9.9 -9.999 -99.9 -99.99 -9.99
2019/09/18 08:18 EDT  -99.99 -99.99   18   32   21 -99.9 -99.9 1021.6 -9.9 -9.999 -99.9 -99.99 -9.99
2019/09/18 08:24 EDT  -99.99 -99.99   18   30   21 -99.9 -99.9 1021.6 -9.9 -9.999 -99.9 -99.99 -9.99
2019/09/18 08:30 EDT  -99.99 -99.99   18   34   21 -99.9 -99.9 1021.6 -9.9 -9.999 -99.9 -99.99 -9.99
2019/09/18 08:36 EDT  -99.99 -99.99   18   31   21 -99.9 -99.9 1021.5 -9.9 -9.999 -99.9 -99.99 -9.99
2019/09/18 08:42 EDT  -99.99 -99.99   18   36   21 -99.9 -99.9 1021.7 -9.9 -9.999 -99.9 -99.99 -9.99
2019/09/18 08:48 EDT  -99.99 -99.99   19   27   21 -99.9 -99.9 1021.8 -9.9 -9.999 -99.9 -99.99 -9.99
2019/09/18 08:54 EDT  -99.99 -99.99   18   31   21 -99.9 -99.9 1021.9 -9.9 -9.999 -99.9 -99.99 -9.99
2019/09/18 09:00 EDT  -99.99 -99.99   20   32   22 -99.9 -99.9 1022.0 -9.9 -9.999 -99.9 -99.99 -9.99
2019/09/18 09:06 EDT  -99.99 -99.99   19   25   22 -99.9 -99.9 1022.0 -9.9 -9.999 -99.9 -99.99 -9.99
2019/09/18 09:12 EDT  -99.99 -99.99   17   30   21 -99.9 -99.9 1022.1 -9.9 -9.999 -99.9 -99.99 -9.99
2019/09/18 09:18 EDT  -99.99 -99.99   17   25   21 -99.9 -99.9 1022.1 -9.9 -9.999 -99.9 -99.99 -9.99
2019/09/18 09:24 EDT  -99.99 -99.99   17   30   20 -99.9 -99.9 1022.1 -9.9 -9.999 -99.9 -99.99 -9.99
2019/09/18 09:30 EDT  -99.99 -99.99   18   28   22 -99.9 -99.9 1022.2 -9.9 -9.999 -99.9 -99.99 -9.99
2019/09/18 09:36 EDT  -99.99 -99.99   16   32   21 -99.9 -99.9 1022.2 -9.9 -9.999 -99.9 -99.99 -9.99
2019/09/18 09:42 EDT  -99.99 -99.99   16   25   20 -99.9 -99.9 1022.2 -9.9 -9.999 -99.9 -99.99 -9.99
2019/09/18 09:48 EDT  -99.99 -99.99   17   34   19 -99.9 -99.9 1022.2 -9.9 -9.999 -99.9 -99.99 -9.99
2019/09/18 09:54 EDT  -99.99 -99.99   17   29   20 -99.9 -99.9 1022.3 -9.9 -9.999 -99.9 -99.99 -9.99
2019/09/18 10:00 EDT  -99.99 -99.99   16   24   20 -99.9 -99.9 1022.2 -9.9 -9.999 -99.9 -99.99 -9.99
2019/09/18 10:06 EDT  -99.99 -99.99   17   22   22 -99.9 -99.9 1022.2 -9.9 -9.999 -99.9 -99.99 -9.99
2019/09/18 10:12 EDT  -99.99 -99.99   16   27   18 -99.9 -99.9 1022.3 -9.9 -9.999 -99.9 -99.99 -9.99
2019/09/18 10:18 EDT  -99.99 -99.99   18   19   20 -99.9 -99.9 1022.2 -9.9 -9.999 -99.9 -99.99 -9.99
2019/09/18 10:24 EDT  -99.99 -99.99   18   18   22 -99.9 -99.9 1022.3 -9.9 -9.999 -99.9 -99.99 -9.99
2019/09/18 10:30 EDT  -99.99 -99.99   17   22   21 -99.9 -99.9 1022.3 -9.9 -9.999 -99.9 -99.99 -9.99
2019/09/18 10:36 EDT  -99.99 -99.99   18   21   22 -99.9 -99.9 1022.3 -9.9 -9.999 -99.9 -99.99 -9.99
2019/09/18 10:42 EDT  -99.99 -99.99   18   24   21 -99.9 -99.9 1022.4 -9.9 -9.999 -99.9 -99.99 -9.99
2019/09/18 10:48 EDT  -99.99 -99.99   18   27   22 -99.9 -99.9 1022.5 -9.9 -9.999 -99.9 -99.99 -9.99
2019/09/18 10:54 EDT  -99.99 -99.99   18   25   21 -99.9 -99.9 1022.5 -9.9 -9.999 -99.9 -99.99 -9.99
2019/09/18 11:00 EDT  -99.99 -99.99   17   21   20 -99.9 -99.9 1022.4 -9.9 -9.999 -99.9 -99.99 -9.99
2019/09/18 11:06 EDT  -99.99 -99.99   17   17   21 -99.9 -99.9 1022.5 -9.9 -9.999 -99.9 -99.99 -9.99
2019/09/18 11:12 EDT  -99.99 -99.99   17   17   21 -99.9 -99.9 1022.4 -9.9 -9.999 -99.9 -99.99 -9.99
2019/09/18 11:18 EDT  -99.99 -99.99   18   10   20 -99.9 -99.9 1022.4 -9.9 -9.999 -99.9 -99.99 -9.99
2019/09/18 11:24 EDT  -99.99 -99.99   18   24   22 -99.9 -99.9 1022.4 -9.9 -9.999 -99.9 -99.99 -9.99
2019/09/18 11:30 EDT  -99.99 -99.99   17   22   22 -99.9 -99.9 1022.4 -9.9 -9.999 -99.9 -99.99 -9.99
2019/09/18 11:36 EDT  -99.99 -99.99   17   25   20 -99.9 -99.9 1022.4 -9.9 -9.999 -99.9 -99.99 -9.99
2019/09/18 11:42 EDT  -99.99 -99.99   17   18   21 -99.9 -99.9 1022.5 -9.9 -9.999 -99.9 -99.99 -9.99
2019/09/18 11:48 EDT  -99.99 -99.99   15   18   19 -99.9 -99.9 1022.4 -9.9 -9.999 -99.9 -99.99 -9.99
2019/09/18 11:54 EDT  -99.99 -99.99   14   12   17 -99.9 -99.9 1022.4 -9.9 -9.999 -99.9 -99.99 -9.99
2019/09/18 12:00 EDT  -99.99 -99.99   16    3   19 -99.9 -99.9 1022.3 -9.9 -9.999 -99.9 -99.99 -9.99
2019/09/18 12:06 EDT  -99.99 -99.99   13    9   18 -99.9 -99.9 1022.3 -9.9 -9.999 -99.9 -99.99 -9.99
2019/09/18 12:12 EDT  -99.99 -99.99   16    8   18 -99.9 -99.9 1022.3 -9.9 -9.999 -99.9 -99.99 -9.99
2019/09/18 12:18 EDT  -99.99 -99.99   15   16   19 -99.9 -99.9 1022.3 -9.9 -9.999 -99.9 -99.99 -9.99
2019/09/18 12:24 EDT  -99.99 -99.99   14   19   17 -99.9 -99.9 1022.3 -9.9 -9.999 -99.9 -99.99 -9.99
2019/09/18 12:30 EDT  -99.99 -99.99   17   16   18 -99.9 -99.9 1022.4 -9.9 -9.999 -99.9 -99.99 -9.99
2019/09/18 12:36 EDT  -99.99 -99.99   17   28   19 -99.9 -99.9 1022.4 -9.9 -9.999 -99.9 -99.99 -9.99
2019/09/18 12:42 EDT  -99.99 -99.99   13   37   17 -99.9 -99.9 1022.4 -9.9 -9.999 -99.9 -99.99 -9.99
2019/09/18 12:48 EDT  -99.99 -99.99   12   46   15 -99.9 -99.9 1022.4 -9.9 -9.999 -99.9 -99.99 -9.99
2019/09/18 12:54 EDT  -99.99 -99.99   12   31   15 -99.9 -99.9 1022.5 -9.9 -9.999 -99.9 -99.99 -9.99
2019/09/18 13:00 EDT  -99.99 -99.99   13   22   15 -99.9 -99.9 1022.5 -9.9 -9.999 -99.9 -99.99 -9.99
2019/09/18 13:06 EDT  -99.99 -99.99   16   18   18 -99.9 -99.9 1022.4 -9.9 -9.999 -99.9 -99.99 -9.99
2019/09/18 13:12 EDT  -99.99 -99.99   15   16   19 -99.9 -99.9 1022.4 -9.9 -9.999 -99.9 -99.99 -9.99
2019/09/18 13:18 EDT  -99.99 -99.99   17   25   20 -99.9 -99.9 1022.5 -9.9 -9.999 -99.9 -99.99 -9.99
2019/09/18 13:24 EDT  -99.99 -99.99   17   29   18 -99.9 -99.9 1022.4 -9.9 -9.999 -99.9 -99.99 -9.99
2019/09/18 13:30 EDT  -99.99 -99.99   14   34   18 -99.9 -99.9 1022.4 -9.9 -9.999 -99.9 -99.99 -9.99
2019/09/18 13:36 EDT  -99.99 -99.99   15   26   18 -99.9 -99.9 1022.4 -9.9 -9.999 -99.9 -99.99 -9.99
2019/09/18 13:42 EDT  -99.99 -99.99   16   42   20 -99.9 -99.9 1022.5 -9.9 -9.999 -99.9 -99.99 -9.99
2019/09/18 13:48 EDT  -99.99 -99.99   17   30   19 -99.9 -99.9 1022.5 -9.9 -9.999 -99.9 -99.99 -9.99
2019/09/18 13:54 EDT  -99.99 -99.99   15   20   18 -99.9 -99.9 1022.5 -9.9 -9.999 -99.9 -99.99 -9.99
2019/09/18 14:00 EDT  -99.99 -99.99   13   24   16 -99.9 -99.9 1022.4 -9.9 -9.999 -99.9 -99.99 -9.99
2019/09/18 14:06 EDT  -99.99 -99.99   16   33   21 -99.9 -99.9 1022.4 -9.9 -9.999 -99.9 -99.99 -9.99
2019/09/18 14:12 EDT  -99.99 -99.99   16   30   20 -99.9 -99.9 1022.3 -9.9 -9.999 -99.9 -99.99 -9.99
2019/09/18 14:18 EDT  -99.99 -99.99   14   35   17 -99.9 -99.9 1022.3 -9.9 -9.999 -99.9 -99.99 -9.99
2019/09/18 14:24 EDT  -99.99 -99.99   12   35   15 -99.9 -99.9 1022.3 -9.9 -9.999 -99.9 -99.99 -9.99
2019/09/18 14:30 EDT  -99.99 -99.99   15   40   17 -99.9 -99.9 1022.2 -9.9 -9.999 -99.9 -99.99 -9.99
2019/09/18 14:36 EDT  -99.99 -99.99   13   41   17 -99.9 -99.9 1022.1 -9.9 -9.999 -99.9 -99.99 -9.99
2019/09/18 14:42 EDT  -99.99 -99.99   14   23   16 -99.9 -99.9 1022.2 -9.9 -9.999 -99.9 -99.99 -9.99
2019/09/18 14:48 EDT  -99.99 -99.99   13   27   15 -99.9 -99.9 1022.2 -9.9 -9.999 -99.9 -99.99 -9.99
2019/09/18 14:54 EDT  -99.99 -99.99   14   25   17 -99.9 -99.9 1022.1 -9.9 -9.999 -99.9 -99.99 -9.99
2019/09/18 15:00 EDT  -99.99 -99.99   13   19   17 -99.9 -99.9 1022.1 -9.9 -9.999 -99.9 -99.99 -9.99
2019/09/18 15:06 EDT  -99.99 -99.99   17   38   22 -99.9 -99.9 1022.1 -9.9 -9.999 -99.9 -99.99 -9.99
2019/09/18 15:12 EDT  -99.99 -99.99   18   44   20 -99.9 -99.9 1022.0 -9.9 -9.999 -99.9 -99.99 -9.99
2019/09/18 15:18 EDT  -99.99 -99.99   15   36   20 -99.9 -99.9 1022.1 -9.9 -9.999 -99.9 -99.99 -9.99
2019/09/18 15:24 EDT  -99.99 -99.99   14   32   17 -99.9 -99.9 1022.1 -9.9 -9.999 -99.9 -99.99 -9.99
2019/09/18 15:30 EDT  -99.99 -99.99   13   36   17 -99.9 -99.9 1022.2 -9.9 -9.999 -99.9 -99.99 -9.99
2019/09/18 15:36 EDT  -99.99 -99.99   15   28   18 -99.9 -99.9 1022.3 -9.9 -9.999 -99.9 -99.99 -9.99
2019/09/18 15:42 EDT  -99.99 -99.99   12   32   16 -99.9 -99.9 1022.3 -9.9 -9.999 -99.9 -99.99 -9.99
2019/09/18 15:48 EDT  -99.99 -99.99   12   22   17 -99.9 -99.9 1022.3 -9.9 -9.999 -99.9 -99.99 -9.99
2019/09/18 15:54 EDT  -99.99 -99.99   15   39   17 -99.9 -99.9 1022.3 -9.9 -9.999 -99.9 -99.99 -9.99
2019/09/18 16:00 EDT  -99.99 -99.99   16   41   19 -99.9 -99.9 1022.2 -9.9 -9.999 -99.9 -99.99 -9.99
2019/09/18 16:06 EDT  -99.99 -99.99   14   46   17 -99.9 -99.9 1022.3 -9.9 -9.999 -99.9 -99.99 -9.99
2019/09/18 16:12 EDT  -99.99 -99.99   12   43   16 -99.9 -99.9 1022.3 -9.9 -9.999 -99.9 -99.99 -9.99
2019/09/18 16:18 EDT  -99.99 -99.99   13   50   16 -99.9 -99.9 1022.3 -9.9 -9.999 -99.9 -99.99 -9.99
2019/09/18 16:24 EDT  -99.99 -99.99   11   44   15 -99.9 -99.9 1022.3 -9.9 -9.999 -99.9 -99.99 -9.99
2019/09/18 16:30 EDT  -99.99 -99.99   12   36   16 -99.9 -99.9 1022.2 -9.9 -9.999 -99.9 -99.99 -9.99
2019/09/18 16:36 EDT  -99.99 -99.99   18   46   19 -99.9 -99.9 1022.3 -9.9 -9.999 -99.9 -99.99 -9.99
2019/09/18 16:42 EDT  -99.99 -99.99   17   53   22 -99.9 -99.9 1022.2 -9.9 -9.999 -99.9 -99.99 -9.99
2019/09/18 16:48 EDT  -99.99 -99.99   16   45   20 -99.9 -99.9 1022.2 -9.9 -9.999 -99.9 -99.99 -9.99
2019/09/18 16:54 EDT  -99.99 -99.99   13   50   17 -99.9 -99.9 1022.3 -9.9 -9.999 -99.9 -99.99 -9.99
2019/09/18 17:00 EDT  -99.99 -99.99   17   51   20 -99.9 -99.9 1022.3 -9.9 -9.999 -99.9 -99.99 -9.99
2019/09/18 17:06 EDT  -99.99 -99.99   18   53   21 -99.9 -99.9 1022.4 -9.9 -9.999 -99.9 -99.99 -9.99
2019/09/18 17:12 EDT  -99.99 -99.99   18   54   20 -99.9 -99.9 1022.4 -9.9 -9.999 -99.9 -99.99 -9.99
2019/09/18 17:18 EDT  -99.99 -99.99   17   46   20 -99.9 -99.9 1022.4 -9.9 -9.999 -99.9 -99.99 -9.99
2019/09/18 17:24 EDT  -99.99 -99.99   17   51   20 -99.9 -99.9 1022.5 -9.9 -9.999 -99.9 -99.99 -9.99
2019/09/18 17:30 EDT  -99.99 -99.99   17   47   21 -99.9 -99.9 1022.6 -9.9 -9.999 -99.9 -99.99 -9.99
2019/09/18 17:36 EDT  -99.99 -99.99   19   52   21 -99.9 -99.9 1022.6 -9.9 -9.999 -99.9 -99.99 -9.99
2019/09/18 17:42 EDT  -99.99 -99.99   17   53   20 -99.9 -99.9 1022.6 -9.9 -9.999 -99.9 -99.99 -9.99
2019/09/18 17:48 EDT  -99.99 -99.99   16   48   21 -99.9 -99.9 1022.6 -9.9 -9.999 -99.9 -99.99 -9.99
2019/09/18 17:54 EDT  -99.99 -99.99   18   42   20 -99.9 -99.9 1022.5 -9.9 -9.999 -99.9 -99.99 -9.99
2019/09/18 18:00 EDT  -99.99 -99.99   15   55   19 -99.9 -99.9 1022.5 -9.9 -9.999 -99.9 -99.99 -9.99
2019/09/18 18:06 EDT  -99.99 -99.99   15   50   20 -99.9 -99.9 1022.6 -9.9 -9.999 -99.9 -99.99 -9.99
2019/09/18 18:12 EDT  -99.99 -99.99   20   45   23 -99.9 -99.9 1022.6 -9.9 -9.999 -99.9 -99.99 -9.99
2019/09/18 18:18 EDT  -99.99 -99.99   19   54   21 -99.9 -99.9 1022.5 -9.9 -9.999 -99.9 -99.99 -9.99
2019/09/18 18:24 EDT  -99.99 -99.99   17   61   20 -99.9 -99.9 1022.5 -9.9 -9.999 -99.9 -99.99 -9.99
2019/09/18 18:30 EDT  -99.99 -99.99   16   53   19 -99.9 -99.9 1022.7 -9.9 -9.999 -99.9 -99.99 -9.99
2019/09/18 18:36 EDT  -99.99 -99.99   20   49   23 -99.9 -99.9 1022.7 -9.9 -9.999 -99.9 -99.99 -9.99
2019/09/18 18:42 EDT  -99.99 -99.99   19   55   24 -99.9 -99.9 1022.7 -9.9 -9.999 -99.9 -99.99 -9.99
2019/09/18 18:48 EDT  -99.99 -99.99   16   46   22 -99.9 -99.9 1022.9 -9.9 -9.999 -99.9 -99.99 -9.99
2019/09/18 18:54 EDT  -99.99 -99.99   18   55   20 -99.9 -99.9 1023.0 -9.9 -9.999 -99.9 -99.99 -9.99
2019/09/18 19:00 EDT  -99.99 -99.99   17   61   20 -99.9 -99.9 1023.1 -9.9 -9.999 -99.9 -99.99 -9.99
2019/09/18 19:06 EDT  -99.99 -99.99   16   57   19 -99.9 -99.9 1023.1 -9.9 -9.999 -99.9 -99.99 -9.99
2019/09/18 19:12 EDT  -99.99 -99.99   17   50   20 -99.9 -99.9 1023.1 -9.9 -9.999 -99.9 -99.99 -9.99
2019/09/18 19:18 EDT  -99.99 -99.99   19   51   21 -99.9 -99.9 1023.2 -9.9 -9.999 -99.9 -99.99 -9.99
2019/09/18 19:24 EDT  -99.99 -99.99   15   53   21 -99.9 -99.9 1023.2 -9.9 -9.999 -99.9 -99.99 -9.99
2019/09/18 19:30 EDT  -99.99 -99.99   17   48   19 -99.9 -99.9 1023.3 -9.9 -9.999 -99.9 -99.99 -9.99
2019/09/18 19:36 EDT  -99.99 -99.99   15   52   20 -99.9 -99.9 1023.4 -9.9 -9.999 -99.9 -99.99 -9.99
2019/09/18 19:42 EDT  -99.99 -99.99   18   55   21 -99.9 -99.9 1023.4 -9.9 -9.999 -99.9 -99.99 -9.99
2019/09/18 19:48 EDT  -99.99 -99.99   15   50   21 -99.9 -99.9 1023.3 -9.9 -9.999 -99.9 -99.99 -9.99
2019/09/18 19:54 EDT  -99.99 -99.99   16   55   19 -99.9 -99.9 1023.4 -9.9 -9.999 -99.9 -99.99 -9.99
2019/09/18 20:00 EDT  -99.99 -99.99   16   48   20 -99.9 -99.9 1023.3 -9.9 -9.999 -99.9 -99.99 -9.99
2019/09/18 20:06 EDT  -99.99 -99.99   14   56   18 -99.9 -99.9 1023.3 -9.9 -9.999 -99.9 -99.99 -9.99
2019/09/18 20:12 EDT  -99.99 -99.99   16   53   19 -99.9 -99.9 1023.4 -9.9 -9.999 -99.9 -99.99 -9.99
2019/09/18 20:18 EDT  -99.99 -99.99   18   57   20 -99.9 -99.9 1023.5 -9.9 -9.999 -99.9 -99.99 -9.99
2019/09/18 20:24 EDT  -99.99 -99.99   19   50   25 -99.9 -99.9 1023.4 -9.9 -9.999 -99.9 -99.99 -9.99
2019/09/18 20:30 EDT  -99.99 -99.99   18   54   21 -99.9 -99.9 1023.4 -9.9 -9.999 -99.9 -99.99 -9.99
2019/09/18 20:36 EDT  -99.99 -99.99   18   48   21 -99.9 -99.9 1023.5 -9.9 -9.999 -99.9 -99.99 -9.99
2019/09/18 20:42 EDT  -99.99 -99.99   18   48   21 -99.9 -99.9 1023.7 -9.9 -9.999 -99.9 -99.99 -9.99
2019/09/18 20:48 EDT  -99.99 -99.99   17   46   21 -99.9 -99.9 1023.8 -9.9 -9.999 -99.9 -99.99 -9.99
2019/09/18 20:54 EDT  -99.99 -99.99   16   51   21 -99.9 -99.9 1023.9 -9.9 -9.999 -99.9 -99.99 -9.99
2019/09/18 21:00 EDT  -99.99 -99.99   17   54   19 -99.9 -99.9 1024.1 -9.9 -9.999 -99.9 -99.99 -9.99
2019/09/18 21:06 EDT  -99.99 -99.99   18   56   22 -99.9 -99.9 1024.1 -9.9 -9.999 -99.9 -99.99 -9.99
2019/09/18 21:12 EDT  -99.99 -99.99   20   50   23 -99.9 -99.9 1024.2 -9.9 -9.999 -99.9 -99.99 -9.99
2019/09/18 21:18 EDT  -99.99 -99.99   18   46   21 -99.9 -99.9 1024.2 -9.9 -9.999 -99.9 -99.99 -9.99
2019/09/18 21:24 EDT  -99.99 -99.99   17   49   22 -99.9 -99.9 1024.2 -9.9 -9.999 -99.9 -99.99 -9.99
2019/09/18 21:30 EDT  -99.99 -99.99   19   45   21 -99.9 -99.9 1024.2 -9.9 -9.999 -99.9 -99.99 -9.99
2019/09/18 21:36 EDT  -99.99 -99.99   19   45   23 -99.9 -99.9 1024.2 -9.9 -9.999 -99.9 -99.99 -9.99
2019/09/18 21:42 EDT  -99.99 -99.99   19   47   23 -99.9 -99.9 1024.3 -9.9 -9.999 -99.9 -99.99 -9.99
2019/09/18 21:48 EDT  -99.99 -99.99   17   46   22 -99.9 -99.9 1024.3 -9.9 -9.999 -99.9 -99.99 -9.99
2019/09/18 21:54 EDT  -99.99 -99.99   18   50   21 -99.9 -99.9 1024.3 -9.9 -9.999 -99.9 -99.99 -9.99
2019/09/18 22:00 EDT  -99.99 -99.99   17   50   21 -99.9 -99.9 1024.4 -9.9 -9.999 -99.9 -99.99 -9.99
2019/09/18 22:06 EDT  -99.99 -99.99   17   56   20 -99.9 -99.9 1024.3 -9.9 -9.999 -99.9 -99.99 -9.99
2019/09/18 22:12 EDT  -99.99 -99.99   17   51   19 -99.9 -99.9 1024.3 -9.9 -9.999 -99.9 -99.99 -9.99
2019/09/18 22:18 EDT  -99.99 -99.99   16   49   20 -99.9 -99.9 1024.2 -9.9 -9.999 -99.9 -99.99 -9.99
2019/09/18 22:24 EDT  -99.99 -99.99   18   47   21 -99.9 -99.9 1024.3 -9.9 -9.999 -99.9 -99.99 -9.99
2019/09/18 22:30 EDT  -99.99 -99.99   17   46   23 -99.9 -99.9 1024.3 -9.9 -9.999 -99.9 -99.99 -9.99
2019/09/18 22:36 EDT  -99.99 -99.99   16   45   20 -99.9 -99.9 1024.3 -9.9 -9.999 -99.9 -99.99 -9.99
2019/09/18 22:42 EDT  -99.99 -99.99   15   51   19 -99.9 -99.9 1024.2 -9.9 -9.999 -99.9 -99.99 -9.99
2019/09/18 22:48 EDT  -99.99 -99.99   14   50   19 -99.9 -99.9 1024.1 -9.9 -9.999 -99.9 -99.99 -9.99
2019/09/18 22:54 EDT  -99.99 -99.99   17   52   21 -99.9 -99.9 1024.2 -9.9 -9.999 -99.9 -99.99 -9.99
2019/09/18 23:00 EDT  -99.99 -99.99   16   53   19 -99.9 -99.9 1024.3 -9.9 -9.999 -99.9 -99.99 -9.99
2019/09/18 23:06 EDT  -99.99 -99.99   15   53   22 -99.9 -99.9 1024.3 -9.9 -9.999 -99.9 -99.99 -9.99
2019/09/18 23:12 EDT  -99.99 -99.99   18   53   21 -99.9 -99.9 1024.2 -9.9 -9.999 -99.9 -99.99 -9.99
2019/09/18 23:18 EDT  -99.99 -99.99   17   54   21 -99.9 -99.9 1024.2 -9.9 -9.999 -99.9 -99.99 -9.99
2019/09/18 23:24 EDT  -99.99 -99.99   17   56   20 -99.9 -99.9 1024.3 -9.9 -9.999 -99.9 -99.99 -9.99
2019/09/18 23:30 EDT  -99.99 -99.99   16   56   21 -99.9 -99.9 1024.3 -9.9 -9.999 -99.9 -99.99 -9.99
2019/09/18 23:36 EDT  -99.99 -99.99   18   55   21 -99.9 -99.9 1024.4 -9.9 -9.999 -99.9 -99.99 -9.99
2019/09/18 23:42 EDT  -99.99 -99.99   19   57   23 -99.9 -99.9 1024.3 -9.9 -9.999 -99.9 -99.99 -9.99
2019/09/18 23:48 EDT  -99.99 -99.99   19   55   23 -99.9 -99.9 1024.4 -9.9 -9.999 -99.9 -99.99 -9.99
2019/09/18 23:54 EDT  -99.99 -99.99   18   54   21 -99.9 -99.9 1024.3 -9.9 -9.999 -99.9 -99.99 -9.99
2019/09/19 00:00 EDT  -99.99 -99.99   19   52   22 -99.9 -99.9 1024.4 -9.9 -9.999 -99.9 -99.99 -9.99
2019/09/19 00:06 EDT  -99.99 -99.99   18   50   22 -99.9 -99.9 1024.4 -9.9 -9.999 -99.9 -99.99 -9.99
2019/09/19 00:12 EDT  -99.99 -99.99   21   53   24 -99.9 -99.9 1024.3 -9.9 -9.999 -99.9 -99.99 -9.99
2019/09/19 00:18 EDT  -99.99 -99.99   19   47   23 -99.9 -99.9 1024.3 -9.9 -9.999 -99.9 -99.99 -9.99
2019/09/19 00:24 EDT  -99.99 -99.99   19   46   24 -99.9 -99.9 1024.3 -9.9 -9.999 -99.9 -99.99 -9.99
2019/09/19 00:30 EDT  -99.99 -99.99   20   48   24 -99.9 -99.9 1024.3 -9.9 -9.999 -99.9 -99.99 -9.99
2019/09/19 00:36 EDT  -99.99 -99.99   20   46   23 -99.9 -99.9 1024.3 -9.9 -9.999 -99.9 -99.99 -9.99
2019/09/19 00:42 EDT  -99.99 -99.99   19   50   23 -99.9 -99.9 1024.3 -9.9 -9.999 -99.9 -99.99 -9.99
2019/09/19 00:48 EDT  -99.99 -99.99   20   41   23 -99.9 -99.9 1024.2 -9.9 -9.999 -99.9 -99.99 -9.99
2019/09/19 00:54 EDT  -99.99 -99.99   19   42   23 -99.9 -99.9 1024.3 -9.9 -9.999 -99.9 -99.99 -9.99
2019/09/19 01:00 EDT  -99.99 -99.99   19   43   21 -99.9 -99.9 1024.3 -9.9 -9.999 -99.9 -99.99 -9.99
2019/09/19 01:06 EDT  -99.99 -99.99   19   38   22 -99.9 -99.9 1024.3 -9.9 -9.999 -99.9 -99.99 -9.99
2019/09/19 01:12 EDT  -99.99 -99.99   19   37   21 -99.9 -99.9 1024.2 -9.9 -9.999 -99.9 -99.99 -9.99
2019/09/19 01:18 EDT  -99.99 -99.99   17   39   19 -99.9 -99.9 1024.3 -9.9 -9.999 -99.9 -99.99 -9.99
2019/09/19 01:24 EDT  -99.99 -99.99   18   35   20 -99.9 -99.9 1024.4 -9.9 -9.999 -99.9 -99.99 -9.99
2019/09/19 01:30 EDT  -99.99 -99.99   20   31   24 -99.9 -99.9 1024.3 -9.9 -9.999 -99.9 -99.99 -9.99
2019/09/19 01:36 EDT  -99.99 -99.99   19   38   23 -99.9 -99.9 1024.3 -9.9 -9.999 -99.9 -99.99 -9.99
2019/09/19 01:42 EDT  -99.99 -99.99   20   37   24 -99.9 -99.9 1024.3 -9.9 -9.999 -99.9 -99.99 -9.99
2019/09/19 01:48 EDT  -99.99 -99.99   21   30   23 -99.9 -99.9 1024.4 -9.9 -9.999 -99.9 -99.99 -9.99
2019/09/19 01:54 EDT  -99.99 -99.99   21   33   24 -99.9 -99.9 1024.4 -9.9 -9.999 -99.9 -99.99 -9.99
2019/09/19 02:00 EDT  -99.99 -99.99   22   33   24 -99.9 -99.9 1024.4 -9.9 -9.999 -99.9 -99.99 -9.99
2019/09/19 02:06 EDT  -99.99 -99.99   22   35   25 -99.9 -99.9 1024.3 -9.9 -9.999 -99.9 -99.99 -9.99
2019/09/19 02:12 EDT  -99.99 -99.99   18   35   24 -99.9 -99.9 1024.3 -9.9 -9.999 -99.9 -99.99 -9.99
2019/09/19 02:18 EDT  -99.99 -99.99   19   39   23 -99.9 -99.9 1024.3 -9.9 -9.999 -99.9 -99.99 -9.99
2019/09/19 02:24 EDT  -99.99 -99.99   21   30   25 -99.9 -99.9 1024.2 -9.9 -9.999 -99.9 -99.99 -9.99
2019/09/19 02:30 EDT  -99.99 -99.99   21   35   25 -99.9 -99.9 1024.2 -9.9 -9.999 -99.9 -99.99 -9.99
2019/09/19 02:36 EDT  -99.99 -99.99   19   34   24 -99.9 -99.9 1024.1 -9.9 -9.999 -99.9 -99.99 -9.99
2019/09/19 02:42 EDT  -99.99 -99.99   20   36   24 -99.9 -99.9 1024.2 -9.9 -9.999 -99.9 -99.99 -9.99
2019/09/19 02:48 EDT  -99.99 -99.99   21   34   25 -99.9 -99.9 1024.1 -9.9 -9.999 -99.9 -99.99 -9.99
2019/09/19 02:54 EDT  -99.99 -99.99   23   37   25 -99.9 -99.9 1024.2 -9.9 -9.999 -99.9 -99.99 -9.99
2019/09/19 03:00 EDT  -99.99 -99.99   23   40   26 -99.9 -99.9 1024.2 -9.9 -9.999 -99.9 -99.99 -9.99
2019/09/19 03:06 EDT  -99.99 -99.99   23   40   26 -99.9 -99.9 1024.1 -9.9 -9.999 -99.9 -99.99 -9.99
2019/09/19 03:12 EDT  -99.99 -99.99   21   42   26 -99.9 -99.9 1024.3 -9.9 -9.999 -99.9 -99.99 -9.99
2019/09/19 03:18 EDT  -99.99 -99.99   23   42   26 -99.9 -99.9 1024.3 -9.9 -9.999 -99.9 -99.99 -9.99
2019/09/19 03:24 EDT  -99.99 -99.99   23   43   24 -99.9 -99.9 1024.3 -9.9 -9.999 -99.9 -99.99 -9.99
2019/09/19 03:30 EDT  -99.99 -99.99   22   40   25 -99.9 -99.9 1024.4 -9.9 -9.999 -99.9 -99.99 -9.99
2019/09/19 03:36 EDT  -99.99 -99.99   20   45   26 -99.9 -99.9 1024.4 -9.9 -9.999 -99.9 -99.99 -9.99
2019/09/19 03:42 EDT  -99.99 -99.99   22   37   24 -99.9 -99.9 1024.4 -9.9 -9.999 -99.9 -99.99 -9.99
2019/09/19 03:48 EDT  -99.99 -99.99   21   33   24 -99.9 -99.9 1024.4 -9.9 -9.999 -99.9 -99.99 -9.99
2019/09/19 03:54 EDT  -99.99 -99.99   20   31   23 -99.9 -99.9 1024.5 -9.9 -9.999 -99.9 -99.99 -9.99
2019/09/19 04:00 EDT  -99.99 -99.99   19   31   24 -99.9 -99.9 1024.6 -9.9 -9.999 -99.9 -99.99 -9.99
2019/09/19 04:06 EDT  -99.99 -99.99   20   29   23 -99.9 -99.9 1024.5 -9.9 -9.999 -99.9 -99.99 -9.99
2019/09/19 04:12 EDT  -99.99 -99.99   21   37   24 -99.9 -99.9 1024.5 -9.9 -9.999 -99.9 -99.99 -9.99
2019/09/19 04:18 EDT  -99.99 -99.99   20   37   24 -99.9 -99.9 1024.6 -9.9 -9.999 -99.9 -99.99 -9.99
2019/09/19 04:24 EDT  -99.99 -99.99   21   31   25 -99.9 -99.9 1024.6 -9.9 -9.999 -99.9 -99.99 -9.99
2019/09/19 04:30 EDT  -99.99 -99.99   24   34   26 -99.9 -99.9 1024.6 -9.9 -9.999 -99.9 -99.99 -9.99
2019/09/19 04:36 EDT  -99.99 -99.99   23   29   26 -99.9 -99.9 1024.6 -9.9 -9.999 -99.9 -99.99 -9.99
2019/09/19 04:42 EDT  -99.99 -99.99   24   38   26 -99.9 -99.9 1024.7 -9.9 -9.999 -99.9 -99.99 -9.99
2019/09/19 04:48 EDT  -99.99 -99.99   23   32   26 -99.9 -99.9 1024.7 -9.9 -9.999 -99.9 -99.99 -9.99
2019/09/19 04:54 EDT  -99.99 -99.99   22   33   26 -99.9 -99.9 1024.8 -9.9 -9.999 -99.9 -99.99 -9.99
2019/09/19 05:00 EDT  -99.99 -99.99   22   34   24 -99.9 -99.9 1024.9 -9.9 -9.999 -99.9 -99.99 -9.99
2019/09/19 05:06 EDT  -99.99 -99.99   21   31   26 -99.9 -99.9 1024.8 -9.9 -9.999 -99.9 -99.99 -9.99
2019/09/19 05:12 EDT  -99.99 -99.99   21   31   27 -99.9 -99.9 1024.9 -9.9 -9.999 -99.9 -99.99 -9.99
2019/09/19 05:18 EDT  -99.99 -99.99   20   32   24 -99.9 -99.9 1024.9 -9.9 -9.999 -99.9 -99.99 -9.99
2019/09/19 05:24 EDT  -99.99 -99.99   22   33   26 -99.9 -99.9 1024.9 -9.9 -9.999 -99.9 -99.99 -9.99
2019/09/19 05:30 EDT  -99.99 -99.99   21   29   25 -99.9 -99.9 1025.0 -9.9 -9.999 -99.9 -99.99 -9.99
2019/09/19 05:36 EDT  -99.99 -99.99   20   32   24 -99.9 -99.9 1025.0 -9.9 -9.999 -99.9 -99.99 -9.99
2019/09/19 05:42 EDT  -99.99 -99.99   21   28   24 -99.9 -99.9 1025.1 -9.9 -9.999 -99.9 -99.99 -9.99
2019/09/19 05:48 EDT  -99.99 -99.99   19   29   23 -99.9 -99.9 1025.1 -9.9 -9.999 -99.9 -99.99 -9.99
2019/09/19 05:54 EDT  -99.99 -99.99   20   34   24 -99.9 -99.9 1025.1 -9.9 -9.999 -99.9 -99.99 -9.99
2019/09/19 06:00 EDT  -99.99 -99.99   19   27   23 -99.9 -99.9 1025.1 -9.9 -9.999 -99.9 -99.99 -9.99
2019/09/19 06:06 EDT  -99.99 -99.99   19   20   22 -99.9 -99.9 1025.3 -9.9 -9.999 -99.9 -99.99 -9.99
2019/09/19 06:12 EDT  -99.99 -99.99   20   23   24 -99.9 -99.9 1025.3 -9.9 -9.999 -99.9 -99.99 -9.99
2019/09/19 06:18 EDT  -99.99 -99.99   20   20   23 -99.9 -99.9 1025.4 -9.9 -9.999 -99.9 -99.99 -9.99
2019/09/19 06:24 EDT  -99.99 -99.99   21   23   25 -99.9 -99.9 1025.5 -9.9 -9.999 -99.9 -99.99 -9.99
2019/09/19 06:30 EDT  -99.99 -99.99   20   25   24 -99.9 -99.9 1025.5 -9.9 -9.999 -99.9 -99.99 -9.99
2019/09/19 06:36 EDT  -99.99 -99.99   20   20   24 -99.9 -99.9 1025.5 -9.9 -9.999 -99.9 -99.99 -9.99
2019/09/19 06:42 EDT  -99.99 -99.99   20   21   24 -99.9 -99.9 1025.6 -9.9 -9.999 -99.9 -99.99 -9.99
2019/09/19 06:48 EDT  -99.99 -99.99   19   26   24 -99.9 -99.9 1025.7 -9.9 -9.999 -99.9 -99.99 -9.99
2019/09/19 06:54 EDT  -99.99 -99.99   19   22   24 -99.9 -99.9 1025.7 -9.9 -9.999 -99.9 -99.99 -9.99
2019/09/19 07:00 EDT  -99.99 -99.99   21   28   24 -99.9 -99.9 1025.7 -9.9 -9.999 -99.9 -99.99 -9.99
2019/09/19 07:06 EDT  -99.99 -99.99   19   29   24 -99.9 -99.9 1025.7 -9.9 -9.999 -99.9 -99.99 -9.99
2019/09/19 07:12 EDT  -99.99 -99.99   21   22   25 -99.9 -99.9 1025.7 -9.9 -9.999 -99.9 -99.99 -9.99
2019/09/19 07:18 EDT  -99.99 -99.99   21   23   23 -99.9 -99.9 1025.8 -9.9 -9.999 -99.9 -99.99 -9.99
2019/09/19 07:24 EDT  -99.99 -99.99   20   29   23 -99.9 -99.9 1025.8 -9.9 -9.999 -99.9 -99.99 -9.99
2019/09/19 07:30 EDT  -99.99 -99.99   21   30   26 -99.9 -99.9 1025.8 -9.9 -9.999 -99.9 -99.99 -9.99
2019/09/19 07:36 EDT  -99.99 -99.99   20   27   24 -99.9 -99.9 1025.8 -9.9 -9.999 -99.9 -99.99 -9.99
2019/09/19 07:42 EDT  -99.99 -99.99   19   30   22 -99.9 -99.9 1025.8 -9.9 -9.999 -99.9 -99.99 -9.99
2019/09/19 07:48 EDT  -99.99 -99.99   17   33   22 -99.9 -99.9 1025.8 -9.9 -9.999 -99.9 -99.99 -9.99
2019/09/19 07:54 EDT  -99.99 -99.99   18   32   23 -99.9 -99.9 1025.9 -9.9 -9.999 -99.9 -99.99 -9.99
2019/09/19 08:00 EDT  -99.99 -99.99   20   39   23 -99.9 -99.9 1026.0 -9.9 -9.999 -99.9 -99.99 -9.99
2019/09/19 08:06 EDT  -99.99 -99.99   19   34   24 -99.9 -99.9 1026.0 -9.9 -9.999 -99.9 -99.99 -9.99
2019/09/19 08:12 EDT  -99.99 -99.99   19   37   21 -99.9 -99.9 1026.1 -9.9 -9.999 -99.9 -99.99 -9.99
2019/09/19 08:18 EDT  -99.99 -99.99   18   28   21 -99.9 -99.9 1026.1 -9.9 -9.999 -99.9 -99.99 -9.99
2019/09/19 08:24 EDT  -99.99 -99.99   19   29   21 -99.9 -99.9 1026.1 -9.9 -9.999 -99.9 -99.99 -9.99
2019/09/19 08:30 EDT  -99.99 -99.99   17   37   24 -99.9 -99.9 1026.2 -9.9 -9.999 -99.9 -99.99 -9.99
2019/09/19 08:36 EDT  -99.99 -99.99   17   37   19 -99.9 -99.9 1026.3 -9.9 -9.999 -99.9 -99.99 -9.99
2019/09/19 08:42 EDT  -99.99 -99.99   21   37   24 -99.9 -99.9 1026.4 -9.9 -9.999 -99.9 -99.99 -9.99
2019/09/19 08:48 EDT  -99.99 -99.99   21   34   23 -99.9 -99.9 1026.4 -9.9 -9.999 -99.9 -99.99 -9.99
2019/09/19 08:54 EDT  -99.99 -99.99   18   28   24 -99.9 -99.9 1026.5 -9.9 -9.999 -99.9 -99.99 -9.99
2019/09/19 09:00 EDT  -99.99 -99.99   19   29   21 -99.9 -99.9 1026.5 -9.9 -9.999 -99.9 -99.99 -9.99
2019/09/19 09:06 EDT  -99.99 -99.99   19   22   22 -99.9 -99.9 1026.6 -9.9 -9.999 -99.9 -99.99 -9.99
2019/09/19 09:12 EDT  -99.99 -99.99   17   22   21 -99.9 -99.9 1026.6 -9.9 -9.999 -99.9 -99.99 -9.99
2019/09/19 09:18 EDT  -99.99 -99.99   18   25   21 -99.9 -99.9 1026.6 -9.9 -9.999 -99.9 -99.99 -9.99
2019/09/19 09:24 EDT  -99.99 -99.99   15   34   21 -99.9 -99.9 1026.6 -9.9 -9.999 -99.9 -99.99 -9.99
2019/09/19 09:30 EDT  -99.99 -99.99   16   37   20 -99.9 -99.9 1026.7 -9.9 -9.999 -99.9 -99.99 -9.99
2019/09/19 09:36 EDT  -99.99 -99.99   17   38   22 -99.9 -99.9 1026.7 -9.9 -9.999 -99.9 -99.99 -9.99
2019/09/19 09:42 EDT  -99.99 -99.99   17   35   22 -99.9 -99.9 1026.8 -9.9 -9.999 -99.9 -99.99 -9.99
2019/09/19 09:48 EDT  -99.99 -99.99   18   30   21 -99.9 -99.9 1026.8 -9.9 -9.999 -99.9 -99.99 -9.99
2019/09/19 09:54 EDT  -99.99 -99.99   16   34   21 -99.9 -99.9 1026.7 -9.9 -9.999 -99.9 -99.99 -9.99
2019/09/19 10:00 EDT  -99.99 -99.99   15   46   21 -99.9 -99.9 1026.9 -9.9 -9.999 -99.9 -99.99 -9.99
2019/09/19 10:06 EDT  -99.99 -99.99   14   44   20 -99.9 -99.9 1027.0 -9.9 -9.999 -99.9 -99.99 -9.99
2019/09/19 10:12 EDT  -99.99 -99.99   14   35   17 -99.9 -99.9 1027.1 -9.9 -9.999 -99.9 -99.99 -9.99
2019/09/19 10:18 EDT  -99.99 -99.99   16   29   19 -99.9 -99.9 1027.2 -9.9 -9.999 -99.9 -99.99 -9.99
2019/09/19 10:24 EDT  -99.99 -99.99   16   28   19 -99.9 -99.9 1027.2 -9.9 -9.999 -99.9 -99.99 -9.99
2019/09/19 10:30 EDT  -99.99 -99.99   13   42   17 -99.9 -99.9 1027.2 -9.9 -9.999 -99.9 -99.99 -9.99
2019/09/19 10:36 EDT  -99.99 -99.99   15   24   18 -99.9 -99.9 1027.3 -9.9 -9.999 -99.9 -99.99 -9.99
2019/09/19 10:42 EDT  -99.99 -99.99   15   17   17 -99.9 -99.9 1027.3 -9.9 -9.999 -99.9 -99.99 -9.99
2019/09/19 10:48 EDT  -99.99 -99.99   13   18   17 -99.9 -99.9 1027.3 -9.9 -9.999 -99.9 -99.99 -9.99
2019/09/19 10:54 EDT  -99.99 -99.99   14   29   16 -99.9 -99.9 1027.4 -9.9 -9.999 -99.9 -99.99 -9.99
2019/09/19 11:00 EDT  -99.99 -99.99   11   25   17 -99.9 -99.9 1027.5 -9.9 -9.999 -99.9 -99.99 -9.99
2019/09/19 11:06 EDT  -99.99 -99.99   11   34   13 -99.9 -99.9 1027.5 -9.9 -9.999 -99.9 -99.99 -9.99
2019/09/19 11:12 EDT  -99.99 -99.99    9   37   14 -99.9 -99.9 1027.5 -9.9 -9.999 -99.9 -99.99 -9.99
2019/09/19 11:18 EDT  -99.99 -99.99    9   26   14 -99.9 -99.9 1027.5 -9.9 -9.999 -99.9 -99.99 -9.99
2019/09/19 11:24 EDT  -99.99 -99.99    9   38   15 -99.9 -99.9 1027.5 -9.9 -9.999 -99.9 -99.99 -9.99
2019/09/19 11:30 EDT  -99.99 -99.99   12   30   14 -99.9 -99.9 1027.5 -9.9 -9.999 -99.9 -99.99 -9.99
2019/09/19 11:36 EDT  -99.99 -99.99   12   22   15 -99.9 -99.9 1027.5 -9.9 -9.999 -99.9 -99.99 -9.99
2019/09/19 11:42 EDT  -99.99 -99.99   10   22   14 -99.9 -99.9 1027.4 -9.9 -9.999 -99.9 -99.99 -9.99
2019/09/19 11:48 EDT  -99.99 -99.99   10   33   14 -99.9 -99.9 1027.5 -9.9 -9.999 -99.9 -99.99 -9.99
2019/09/19 11:54 EDT  -99.99 -99.99   14   15   15 -99.9 -99.9 1027.5 -9.9 -9.999 -99.9 -99.99 -9.99
2019/09/19 12:00 EDT  -99.99 -99.99   11   14   15 -99.9 -99.9 1027.5 -9.9 -9.999 -99.9 -99.99 -9.99
2019/09/19 12:06 EDT  -99.99 -99.99   10   32   15 -99.9 -99.9 1027.5 -9.9 -9.999 -99.9 -99.99 -9.99
2019/09/19 12:12 EDT  -99.99 -99.99   13   19   16 -99.9 -99.9 1027.5 -9.9 -9.999 -99.9 -99.99 -9.99
2019/09/19 12:18 EDT  -99.99 -99.99   14   16   16 -99.9 -99.9 1027.5 -9.9 -9.999 -99.9 -99.99 -9.99
2019/09/19 12:24 EDT  -99.99 -99.99   13   18   15 -99.9 -99.9 1027.5 -9.9 -9.999 -99.9 -99.99 -9.99
2019/09/19 12:30 EDT  -99.99 -99.99   13    7   18 -99.9 -99.9 1027.5 -9.9 -9.999 -99.9 -99.99 -9.99
2019/09/19 12:36 EDT  -99.99 -99.99   11   10   15 -99.9 -99.9 1027.4 -9.9 -9.999 -99.9 -99.99 -9.99
2019/09/19 12:42 EDT  -99.99 -99.99   12   17   16 -99.9 -99.9 1027.5 -9.9 -9.999 -99.9 -99.99 -9.99
2019/09/19 12:48 EDT  -99.99 -99.99    9    5   13 -99.9 -99.9 1027.4 -9.9 -9.999 -99.9 -99.99 -9.99
2019/09/19 12:54 EDT  -99.99 -99.99   11   23   17 -99.9 -99.9 1027.4 -9.9 -9.999 -99.9 -99.99 -9.99
2019/09/19 13:00 EDT  -99.99 -99.99   11   19   13 -99.9 -99.9 1027.4 -9.9 -9.999 -99.9 -99.99 -9.99
2019/09/19 13:06 EDT  -99.99 -99.99    7   23   12 -99.9 -99.9 1027.3 -9.9 -9.999 -99.9 -99.99 -9.99
2019/09/19 13:12 EDT  -99.99 -99.99   11   23   14 -99.9 -99.9 1027.2 -9.9 -9.999 -99.9 -99.99 -9.99
2019/09/19 13:18 EDT  -99.99 -99.99   16    5   18 -99.9 -99.9 1027.1 -9.9 -9.999 -99.9 -99.99 -9.99
2019/09/19 13:24 EDT  -99.99 -99.99   14  352   16 -99.9 -99.9 1027.1 -9.9 -9.999 -99.9 -99.99 -9.99
2019/09/19 13:30 EDT  -99.99 -99.99   14    6   17 -99.9 -99.9 1027.0 -9.9 -9.999 -99.9 -99.99 -9.99
2019/09/19 13:36 EDT  -99.99 -99.99   12   24   14 -99.9 -99.9 1027.1 -9.9 -9.999 -99.9 -99.99 -9.99
2019/09/19 13:42 EDT  -99.99 -99.99   12   19   15 -99.9 -99.9 1027.2 -9.9 -9.999 -99.9 -99.99 -9.99
2019/09/19 13:48 EDT  -99.99 -99.99   11   18   15 -99.9 -99.9 1027.1 -9.9 -9.999 -99.9 -99.99 -9.99
2019/09/19 13:54 EDT  -99.99 -99.99   12  354   16 -99.9 -99.9 1027.2 -9.9 -9.999 -99.9 -99.99 -9.99
2019/09/19 14:00 EDT  -99.99 -99.99   13    8   15 -99.9 -99.9 1027.1 -9.9 -9.999 -99.9 -99.99 -9.99
2019/09/19 14:06 EDT  -99.99 -99.99   13    0   17 -99.9 -99.9 1027.0 -9.9 -9.999 -99.9 -99.99 -9.99
2019/09/19 14:12 EDT  -99.99 -99.99   12   17   16 -99.9 -99.9 1027.0 -9.9 -9.999 -99.9 -99.99 -9.99
2019/09/19 14:18 EDT  -99.99 -99.99   11   14   14 -99.9 -99.9 1027.0 -9.9 -9.999 -99.9 -99.99 -9.99
2019/09/19 14:24 EDT  -99.99 -99.99   10   13   15 -99.9 -99.9 1026.9 -9.9 -9.999 -99.9 -99.99 -9.99
2019/09/19 14:30 EDT  -99.99 -99.99    8   14   13 -99.9 -99.9 1026.9 -9.9 -9.999 -99.9 -99.99 -9.99
2019/09/19 14:36 EDT  -99.99 -99.99   12   14   15 -99.9 -99.9 1026.9 -9.9 -9.999 -99.9 -99.99 -9.99
2019/09/19 14:42 EDT  -99.99 -99.99   12    5   14 -99.9 -99.9 1026.8 -9.9 -9.999 -99.9 -99.99 -9.99
2019/09/19 14:48 EDT  -99.99 -99.99   10    6   13 -99.9 -99.9 1026.8 -9.9 -9.999 -99.9 -99.99 -9.99
2019/09/19 14:54 EDT  -99.99 -99.99   11   17   14 -99.9 -99.9 1026.8 -9.9 -9.999 -99.9 -99.99 -9.99
2019/09/19 15:00 EDT  -99.99 -99.99   12    2   15 -99.9 -99.9 1026.8 -9.9 -9.999 -99.9 -99.99 -9.99
2019/09/19 15:06 EDT  -99.99 -99.99   12    5   14 -99.9 -99.9 1026.8 -9.9 -9.999 -99.9 -99.99 -9.99
2019/09/19 15:12 EDT  -99.99 -99.99   11    6   14 -99.9 -99.9 1026.7 -9.9 -9.999 -99.9 -99.99 -9.99
2019/09/19 15:18 EDT  -99.99 -99.99   12  349   14 -99.9 -99.9 1026.7 -9.9 -9.999 -99.9 -99.99 -9.99
2019/09/19 15:24 EDT  -99.99 -99.99   10  340   12 -99.9 -99.9 1026.6 -9.9 -9.999 -99.9 -99.99 -9.99
2019/09/19 15:30 EDT  -99.99 -99.99   11  354   15 -99.9 -99.9 1026.5 -9.9 -9.999 -99.9 -99.99 -9.99
2019/09/19 15:36 EDT  -99.99 -99.99   15   21   17 -99.9 -99.9 1026.5 -9.9 -9.999 -99.9 -99.99 -9.99
2019/09/19 15:42 EDT  -99.99 -99.99   12  351   15 -99.9 -99.9 1026.5 -9.9 -9.999 -99.9 -99.99 -9.99
2019/09/19 15:48 EDT  -99.99 -99.99   12  345   16 -99.9 -99.9 1026.4 -9.9 -9.999 -99.9 -99.99 -9.99
2019/09/19 15:54 EDT  -99.99 -99.99   12  358   15 -99.9 -99.9 1026.3 -9.9 -9.999 -99.9 -99.99 -9.99
2019/09/19 16:00 EDT  -99.99 -99.99   11  357   14 -99.9 -99.9 1026.3 -9.9 -9.999 -99.9 -99.99 -9.99
2019/09/19 16:06 EDT  -99.99 -99.99    9    8   15 -99.9 -99.9 1026.3 -9.9 -9.999 -99.9 -99.99 -9.99
2019/09/19 16:12 EDT  -99.99 -99.99   12   12   14 -99.9 -99.9 1026.4 -9.9 -9.999 -99.9 -99.99 -9.99
2019/09/19 16:18 EDT  -99.99 -99.99   10    1   13 -99.9 -99.9 1026.3 -9.9 -9.999 -99.9 -99.99 -9.99
2019/09/19 16:24 EDT  -99.99 -99.99    9   12   11 -99.9 -99.9 1026.4 -9.9 -9.999 -99.9 -99.99 -9.99
2019/09/19 16:30 EDT  -99.99 -99.99   10    6   14 -99.9 -99.9 1026.4 -9.9 -9.999 -99.9 -99.99 -9.99
2019/09/19 16:36 EDT  -99.99 -99.99   11   15   14 -99.9 -99.9 1026.4 -9.9 -9.999 -99.9 -99.99 -9.99
2019/09/19 16:42 EDT  -99.99 -99.99   10   25   13 -99.9 -99.9 1026.4 -9.9 -9.999 -99.9 -99.99 -9.99
2019/09/19 16:48 EDT  -99.99 -99.99   10   15   13 -99.9 -99.9 1026.3 -9.9 -9.999 -99.9 -99.99 -9.99
2019/09/19 16:54 EDT  -99.99 -99.99   10   17   12 -99.9 -99.9 1026.3 -9.9 -9.999 -99.9 -99.99 -9.99
2019/09/19 17:00 EDT  -99.99 -99.99   10   33   13 -99.9 -99.9 1026.3 -9.9 -9.999 -99.9 -99.99 -9.99
2019/09/19 17:06 EDT  -99.99 -99.99    9   62   13 -99.9 -99.9 1026.2 -9.9 -9.999 -99.9 -99.99 -9.99
2019/09/19 17:12 EDT  -99.99 -99.99    9   40   12 -99.9 -99.9 1026.3 -9.9 -9.999 -99.9 -99.99 -9.99
2019/09/19 17:18 EDT  -99.99 -99.99    7   34   10 -99.9 -99.9 1026.3 -9.9 -9.999 -99.9 -99.99 -9.99
2019/09/19 17:24 EDT  -99.99 -99.99    7   34   11 -99.9 -99.9 1026.3 -9.9 -9.999 -99.9 -99.99 -9.99
2019/09/19 17:30 EDT  -99.99 -99.99    9   28   13 -99.9 -99.9 1026.2 -9.9 -9.999 -99.9 -99.99 -9.99
2019/09/19 17:36 EDT  -99.99 -99.99    8   34   10 -99.9 -99.9 1026.3 -9.9 -9.999 -99.9 -99.99 -9.99
2019/09/19 17:42 EDT  -99.99 -99.99    6   51    9 -99.9 -99.9 1026.4 -9.9 -9.999 -99.9 -99.99 -9.99
2019/09/19 17:48 EDT  -99.99 -99.99    9   76   12 -99.9 -99.9 1026.4 -9.9 -9.999 -99.9 -99.99 -9.99
2019/09/19 17:54 EDT  -99.99 -99.99    8   81   11 -99.9 -99.9 1026.4 -9.9 -9.999 -99.9 -99.99 -9.99
2019/09/19 18:00 EDT  -99.99 -99.99    8   72   10 -99.9 -99.9 1026.4 -9.9 -9.999 -99.9 -99.99 -9.99
2019/09/19 18:06 EDT  -99.99 -99.99    8   85   10 -99.9 -99.9 1026.4 -9.9 -9.999 -99.9 -99.99 -9.99
2019/09/19 18:12 EDT  -99.99 -99.99    8   90   10 -99.9 -99.9 1026.4 -9.9 -9.999 -99.9 -99.99 -9.99
2019/09/19 18:18 EDT  -99.99 -99.99    8   95   10 -99.9 -99.9 1026.5 -9.9 -9.999 -99.9 -99.99 -9.99
2019/09/19 18:24 EDT  -99.99 -99.99    8   91   10 -99.9 -99.9 1026.5 -9.9 -9.999 -99.9 -99.99 -9.99
2019/09/19 18:30 EDT  -99.99 -99.99    9   85   12 -99.9 -99.9 1026.4 -9.9 -9.999 -99.9 -99.99 -9.99
2019/09/19 18:36 EDT  -99.99 -99.99   11   85   13 -99.9 -99.9 1026.4 -9.9 -9.999 -99.9 -99.99 -9.99
2019/09/19 18:42 EDT  -99.99 -99.99   11   84   13 -99.9 -99.9 1026.3 -9.9 -9.999 -99.9 -99.99 -9.99
2019/09/19 18:48 EDT  -99.99 -99.99   11   89   14 -99.9 -99.9 1026.3 -9.9 -9.999 -99.9 -99.99 -9.99
2019/09/19 18:54 EDT  -99.99 -99.99   11   90   13 -99.9 -99.9 1026.4 -9.9 -9.999 -99.9 -99.99 -9.99
2019/09/19 19:00 EDT  -99.99 -99.99   12   76   13 -99.9 -99.9 1026.5 -9.9 -9.999 -99.9 -99.99 -9.99
2019/09/19 19:06 EDT  -99.99 -99.99   12   72   14 -99.9 -99.9 1026.5 -9.9 -9.999 -99.9 -99.99 -9.99
2019/09/19 19:12 EDT  -99.99 -99.99   12   79   14 -99.9 -99.9 1026.6 -9.9 -9.999 -99.9 -99.99 -9.99
2019/09/19 19:18 EDT  -99.99 -99.99   13   68   14 -99.9 -99.9 1026.5 -9.9 -9.999 -99.9 -99.99 -9.99
2019/09/19 19:24 EDT  -99.99 -99.99   11   77   14 -99.9 -99.9 1026.4 -9.9 -9.999 -99.9 -99.99 -9.99
2019/09/19 19:30 EDT  -99.99 -99.99   12   78   14 -99.9 -99.9 1026.4 -9.9 -9.999 -99.9 -99.99 -9.99
2019/09/19 19:36 EDT  -99.99 -99.99   11   71   14 -99.9 -99.9 1026.5 -9.9 -9.999 -99.9 -99.99 -9.99
2019/09/19 19:42 EDT  -99.99 -99.99   11   83   13 -99.9 -99.9 1026.6 -9.9 -9.999 -99.9 -99.99 -9.99
2019/09/19 19:48 EDT  -99.99 -99.99   12   78   13 -99.9 -99.9 1026.6 -9.9 -9.999 -99.9 -99.99 -9.99
2019/09/19 19:54 EDT  -99.99 -99.99   11   72   14 -99.9 -99.9 1026.6 -9.9 -9.999 -99.9 -99.99 -9.99
2019/09/19 20:00 EDT  -99.99 -99.99   13   67   15 -99.9 -99.9 1026.7 -9.9 -9.999 -99.9 -99.99 -9.99
2019/09/19 20:06 EDT  -99.99 -99.99   12   71   15 -99.9 -99.9 1026.8 -9.9 -9.999 -99.9 -99.99 -9.99
2019/09/19 20:12 EDT  -99.99 -99.99   12   63   14 -99.9 -99.9 1026.8 -9.9 -9.999 -99.9 -99.99 -9.99
2019/09/19 20:18 EDT  -99.99 -99.99   13   69   15 -99.9 -99.9 1026.9 -9.9 -9.999 -99.9 -99.99 -9.99
2019/09/19 20:24 EDT  -99.99 -99.99   13   61   15 -99.9 -99.9 1026.9 -9.9 -9.999 -99.9 -99.99 -9.99
2019/09/19 20:30 EDT  -99.99 -99.99   13   58   15 -99.9 -99.9 1027.0 -9.9 -9.999 -99.9 -99.99 -9.99
2019/09/19 20:36 EDT  -99.99 -99.99   13   57   15 -99.9 -99.9 1027.1 -9.9 -9.999 -99.9 -99.99 -9.99
2019/09/19 20:42 EDT  -99.99 -99.99   13   62   15 -99.9 -99.9 1027.1 -9.9 -9.999 -99.9 -99.99 -9.99
2019/09/19 20:48 EDT  -99.99 -99.99   12   60   14 -99.9 -99.9 1027.2 -9.9 -9.999 -99.9 -99.99 -9.99
2019/09/19 20:54 EDT  -99.99 -99.99   10   62   12 -99.9 -99.9 1027.3 -9.9 -9.999 -99.9 -99.99 -9.99
2019/09/19 21:00 EDT  -99.99 -99.99   11   64   13 -99.9 -99.9 1027.3 -9.9 -9.999 -99.9 -99.99 -9.99
2019/09/19 21:06 EDT  -99.99 -99.99   11   65   13 -99.9 -99.9 1027.2 -9.9 -9.999 -99.9 -99.99 -9.99
2019/09/19 21:12 EDT  -99.99 -99.99   10   63   12 -99.9 -99.9 1027.2 -9.9 -9.999 -99.9 -99.99 -9.99
2019/09/19 21:18 EDT  -99.99 -99.99   10   52   11 -99.9 -99.9 1027.2 -9.9 -9.999 -99.9 -99.99 -9.99
2019/09/19 21:24 EDT  -99.99 -99.99    8   62   11 -99.9 -99.9 1027.1 -9.9 -9.999 -99.9 -99.99 -9.99
2019/09/19 21:30 EDT  -99.99 -99.99    9   70   11 -99.9 -99.9 1027.1 -9.9 -9.999 -99.9 -99.99 -9.99
2019/09/19 21:36 EDT  -99.99 -99.99   10   82   11 -99.9 -99.9 1027.0 -9.9 -9.999 -99.9 -99.99 -9.99
2019/09/19 21:42 EDT  -99.99 -99.99    9   84   11 -99.9 -99.9 1027.0 -9.9 -9.999 -99.9 -99.99 -9.99
2019/09/19 21:48 EDT  -99.99 -99.99    8   82   10 -99.9 -99.9 1026.9 -9.9 -9.999 -99.9 -99.99 -9.99
2019/09/19 21:54 EDT  -99.99 -99.99    9   85   10 -99.9 -99.9 1026.8 -9.9 -9.999 -99.9 -99.99 -9.99
2019/09/19 22:00 EDT  -99.99 -99.99    8   81   10 -99.9 -99.9 1026.8 -9.9 -9.999 -99.9 -99.99 -9.99
2019/09/19 22:06 EDT  -99.99 -99.99    7   91    9 -99.9 -99.9 1026.8 -9.9 -9.999 -99.9 -99.99 -9.99
2019/09/19 22:12 EDT  -99.99 -99.99    7   75    9 -99.9 -99.9 1026.8 -9.9 -9.999 -99.9 -99.99 -9.99
2019/09/19 22:18 EDT  -99.99 -99.99    9   89   10 -99.9 -99.9 1026.9 -9.9 -9.999 -99.9 -99.99 -9.99
2019/09/19 22:24 EDT  -99.99 -99.99    8   89   10 -99.9 -99.9 1026.8 -9.9 -9.999 -99.9 -99.99 -9.99
2019/09/19 22:30 EDT  -99.99 -99.99    8   93    9 -99.9 -99.9 1026.9 -9.9 -9.999 -99.9 -99.99 -9.99
2019/09/19 22:36 EDT  -99.99 -99.99    8   95    9 -99.9 -99.9 1026.8 -9.9 -9.999 -99.9 -99.99 -9.99
2019/09/19 22:42 EDT  -99.99 -99.99    8   93    9 -99.9 -99.9 1026.8 -9.9 -9.999 -99.9 -99.99 -9.99
2019/09/19 22:48 EDT  -99.99 -99.99    8   91   10 -99.9 -99.9 1026.8 -9.9 -9.999 -99.9 -99.99 -9.99
2019/09/19 22:54 EDT  -99.99 -99.99    8   91   10 -99.9 -99.9 1026.8 -9.9 -9.999 -99.9 -99.99 -9.99
2019/09/19 23:00 EDT  -99.99 -99.99    7   92    9 -99.9 -99.9 1026.8 -9.9 -9.999 -99.9 -99.99 -9.99
2019/09/19 23:06 EDT  -99.99 -99.99    8   94   10 -99.9 -99.9 1026.9 -9.9 -9.999 -99.9 -99.99 -9.99
2019/09/19 23:12 EDT  -99.99 -99.99    7   89    9 -99.9 -99.9 1026.9 -9.9 -9.999 -99.9 -99.99 -9.99
2019/09/19 23:18 EDT  -99.99 -99.99    8   84    9 -99.9 -99.9 1026.9 -9.9 -9.999 -99.9 -99.99 -9.99
2019/09/19 23:24 EDT  -99.99 -99.99    9   90   10 -99.9 -99.9 1026.7 -9.9 -9.999 -99.9 -99.99 -9.99
2019/09/19 23:30 EDT  -99.99 -99.99    8   84    9 -99.9 -99.9 1026.7 -9.9 -9.999 -99.9 -99.99 -9.99
2019/09/19 23:36 EDT  -99.99 -99.99 -999 -999 -999 -99.9 -99.9 -999.9 -9.9 -9.999 -99.9 -99.99 -9.99